<- Previous Day | Today | Next Day ->

All Data for 11 June 2024

 

Time A - D Temp A - D Dew Point A - D Humidity A - D Pressure A - D Wind A - D Wind Dir Gust A - D Rain Rate A - D Rain Total
00:00 9.9 6.6 80 1020.6 3.1 NW 3.8 0.0 0.0
00:01 9.9 6.6 80 1020.2 3.1 W 3.8 0.0 0.0
00:02 9.9 6.6 80 1020.5 2.2 N 3.8 0.0 0.0
00:03 9.9 6.6 80 1020.4 1.6 N 3.8 0.0 0.0
00:04 9.9 6.6 80 1020.4 2.2 WNW 3.8 0.0 0.0
00:05 9.8 6.5 80 1020.2 2.2 NW 3.8 0.0 0.0
00:06 9.8 6.5 80 1020.2 2.2 NW 3.8 0.0 0.0
00:07 9.8 6.5 80 1020.4 1.6 NW 3.8 0.0 0.0
00:08 9.8 6.5 80 1020.3 2.2 W 3.1 0.0 0.0
00:09 9.8 6.5 80 1020.4 3.1 NW 3.1 0.0 0.0
00:10 9.8 6.5 80 1020.6 1.6 NW 3.1 0.0 0.0
00:11 9.8 6.5 80 1020.5 1.6 NW 3.1 0.0 0.0
00:12 9.8 6.5 80 1020.4 3.1 N 3.1 0.0 0.0
00:13 9.8 6.5 80 1020.5 2.2 NW 3.1 0.0 0.0
00:14 9.8 6.5 80 1020.4 1.6 W 3.1 0.0 0.0
00:15 9.8 6.5 80 1020.4 1.6 NW 3.1 0.0 0.0
00:17 9.7 6.4 80 1020.5 1.6 NW 3.1 0.0 0.0
00:18 9.7 6.4 80 1020.6 2.2 N 3.1 0.0 0.0
00:19 9.7 6.4 80 1020.5 1.6 NW 3.1 0.0 0.0
00:20 9.7 6.2 79 1020.5 0.0 NW 3.1 0.0 0.0
00:21 9.6 6.1 79 1020.5 0.0 NW 3.1 0.0 0.0
00:22 9.6 6.1 79 1020.5 0.0 NW 3.1 0.0 0.0
00:23 9.6 6.1 79 1020.6 0.7 NW 2.2 0.0 0.0
00:24 9.6 6.1 79 1020.5 1.6 NW 2.2 0.0 0.0
00:25 9.6 6.1 79 1020.5 2.2 NW 2.2 0.0 0.0
00:26 9.6 6.1 79 1020.5 2.2 NW 2.2 0.0 0.0
00:27 9.5 6.0 79 1020.6 0.0 NW 2.2 0.0 0.0
00:28 9.5 6.2 80 1020.5 0.0 NW 2.2 0.0 0.0
00:29 9.5 6.2 80 1020.5 0.0 NW 2.2 0.0 0.0
00:30 9.5 6.2 80 1020.6 0.0 NW 2.2 0.0 0.0
00:31 9.5 6.2 80 1020.7 0.0 NW 2.2 0.0 0.0
00:32 9.5 6.2 80 1020.5 0.0 NW 2.2 0.0 0.0
00:34 9.4 6.1 80 1020.4 0.0 NW 2.2 0.0 0.0
00:35 9.4 6.1 80 1020.6 0.0 NW 2.2 0.0 0.0
00:36 9.4 6.1 80 1020.7 0.0 NW 2.2 0.0 0.0
00:37 9.4 6.1 80 1020.4 0.0 NW 0.0 0.0 0.0
00:38 9.4 6.1 80 1020.7 0.7 NW 0.7 0.0 0.0
00:39 9.4 6.1 80 1020.6 0.7 NW 0.7 0.0 0.0
00:40 9.4 6.1 80 1020.6 0.0 NW 0.7 0.0 0.0
00:41 9.3 6.0 80 1020.6 0.0 NW 0.7 0.0 0.0
00:42 9.3 6.0 80 1020.4 0.0 NW 0.7 0.0 0.0
00:43 9.3 6.0 80 1020.6 0.0 NW 0.7 0.0 0.0
00:44 9.3 6.0 80 1020.6 0.0 N 0.7 0.0 0.0
00:45 9.3 6.0 80 1020.6 0.0 N 0.7 0.0 0.0
00:46 9.2 5.9 80 1020.5 0.0 N 0.7 0.0 0.0
00:47 9.2 5.9 80 1020.6 0.0 N 0.7 0.0 0.0
00:48 9.2 5.9 80 1020.7 0.0 N 0.7 0.0 0.0
00:49 9.2 5.9 80 1020.5 0.0 N 0.0 0.0 0.0
00:50 9.2 5.9 80 1020.7 0.0 N 0.0 0.0 0.0
00:52 9.1 5.8 80 1020.7 0.0 N 0.0 0.0 0.0
00:53 9.1 5.8 80 1020.6 0.0 N 0.0 0.0 0.0
00:54 9.1 5.8 80 1020.5 0.0 N 0.0 0.0 0.0
00:55 9.1 5.8 80 1020.6 0.0 N 0.0 0.0 0.0
00:56 9.1 5.8 80 1020.4 0.0 N 0.0 0.0 0.0
00:57 9.1 5.8 80 1020.6 0.0 N 0.0 0.0 0.0
00:58 9.1 5.8 80 1020.6 0.0 N 0.0 0.0 0.0
00:59 9.0 5.7 80 1020.6 0.0 N 0.0 0.0 0.0
01:00 9.0 5.7 80 1020.4 0.0 N 0.0 0.0 0.0
01:01 9.0 5.7 80 1020.6 0.0 N 0.0 0.0 0.0
01:02 9.0 5.7 80 1020.6 0.0 N 0.0 0.0 0.0
01:03 9.0 5.7 80 1020.4 0.0 N 0.0 0.0 0.0
01:04 9.0 5.7 80 1020.6 0.0 N 0.0 0.0 0.0
01:05 9.0 5.7 80 1020.4 0.0 N 0.0 0.0 0.0
01:06 9.0 5.7 80 1020.3 0.0 N 0.0 0.0 0.0
01:07 8.9 5.6 80 1020.5 0.0 N 0.0 0.0 0.0
01:08 8.9 5.6 80 1020.5 0.0 N 0.0 0.0 0.0
01:10 8.8 5.5 80 1020.2 0.0 N 0.0 0.0 0.0
01:11 8.8 5.5 80 1020.4 0.0 N 0.0 0.0 0.0
01:12 8.8 5.5 80 1020.4 0.0 N 0.0 0.0 0.0
01:13 8.8 5.5 80 1020.4 1.6 N 1.6 0.0 0.0
01:14 8.8 5.5 80 1020.4 1.6 N 1.6 0.0 0.0
01:15 8.8 5.5 80 1020.5 1.6 N 1.6 0.0 0.0
01:16 8.7 5.4 80 1020.4 0.7 N 1.6 0.0 0.0
01:17 8.7 5.4 80 1020.3 0.0 N 1.6 0.0 0.0
01:18 8.7 5.4 80 1020.6 0.0 N 1.6 0.0 0.0
01:19 8.7 5.4 80 1020.5 0.0 N 1.6 0.0 0.0
01:20 8.7 5.4 80 1020.4 0.0 N 1.6 0.0 0.0
01:21 8.7 5.4 80 1020.5 0.0 N 1.6 0.0 0.0
01:22 8.7 5.4 80 1020.3 0.0 N 1.6 0.0 0.0
01:23 8.7 5.4 80 1020.4 0.0 N 1.6 0.0 0.0
01:24 8.7 5.4 80 1020.4 0.0 N 1.6 0.0 0.0
01:25 8.7 5.4 80 1020.7 0.0 N 1.6 0.0 0.0
01:26 8.7 5.4 80 1020.3 0.0 N 0.0 0.0 0.0
01:28 8.7 5.4 80 1020.5 0.0 N 0.0 0.0 0.0
01:29 8.7 5.4 80 1020.4 0.0 N 0.0 0.0 0.0
01:30 8.6 5.3 80 1020.4 0.0 N 0.0 0.0 0.0
01:31 8.6 5.3 80 1020.2 0.0 N 0.0 0.0 0.0
01:32 8.6 5.3 80 1020.6 0.0 N 0.0 0.0 0.0
01:33 8.6 5.3 80 1020.3 0.0 N 0.0 0.0 0.0
01:34 8.6 5.3 80 1020.3 0.0 N 0.0 0.0 0.0
01:35 8.6 5.3 80 1020.4 0.0 N 0.0 0.0 0.0
01:36 8.5 5.2 80 1020.3 0.0 N 0.0 0.0 0.0
01:37 8.5 5.2 80 1020.3 0.0 N 0.0 0.0 0.0
01:38 8.5 5.2 80 1020.4 0.0 N 0.0 0.0 0.0
01:39 8.5 5.2 80 1020.5 0.0 N 0.0 0.0 0.0
01:40 8.5 5.2 80 1020.4 0.0 N 0.0 0.0 0.0
01:41 8.5 5.2 80 1020.4 0.0 N 0.0 0.0 0.0
01:42 8.4 5.2 80 1020.5 0.0 N 0.0 0.0 0.0
01:43 8.4 5.2 80 1020.3 0.0 N 0.0 0.0 0.0
01:44 8.4 5.2 80 1020.3 0.0 N 0.0 0.0 0.0
01:46 8.4 5.2 80 1020.4 0.0 N 0.0 0.0 0.0
01:47 8.3 5.1 80 1020.3 0.0 N 0.0 0.0 0.0
01:48 8.3 5.1 80 1020.5 0.0 N 0.0 0.0 0.0
01:49 8.3 5.1 80 1020.5 0.0 N 0.0 0.0 0.0
01:50 8.3 5.1 80 1020.5 0.0 N 0.0 0.0 0.0
01:51 8.3 5.1 80 1020.5 0.0 N 0.0 0.0 0.0
01:52 8.3 5.1 80 1020.4 0.0 N 0.0 0.0 0.0
01:53 8.2 5.0 80 1020.5 0.0 N 0.0 0.0 0.0
01:54 8.2 5.0 80 1020.5 0.0 N 0.0 0.0 0.0
01:55 8.2 5.0 80 1020.3 0.0 N 0.0 0.0 0.0
01:56 8.1 4.9 80 1020.3 0.0 N 0.0 0.0 0.0
01:57 8.1 4.9 80 1020.5 0.0 N 0.0 0.0 0.0
01:58 8.1 4.9 80 1020.3 0.0 N 0.0 0.0 0.0
01:59 8.0 4.8 80 1020.3 0.0 N 0.0 0.0 0.0
02:00 8.0 4.8 80 1020.3 0.0 N 0.0 0.0 0.0
02:01 8.0 4.8 80 1020.3 0.0 N 0.0 0.0 0.0
02:03 8.0 4.8 80 1020.5 0.0 N 0.0 0.0 0.0
02:04 8.0 4.8 80 1020.2 0.0 N 0.0 0.0 0.0
02:05 8.0 4.9 81 1020.3 0.0 N 0.0 0.0 0.0
02:06 7.9 4.8 81 1020.2 0.0 N 0.0 0.0 0.0
02:07 7.9 4.8 81 1020.5 0.0 N 0.0 0.0 0.0
02:08 7.9 4.8 81 1020.3 0.0 N 0.0 0.0 0.0
02:09 7.9 4.8 81 1020.3 0.0 N 0.0 0.0 0.0
02:10 7.9 4.8 81 1020.3 0.0 N 0.0 0.0 0.0
02:11 7.9 4.8 81 1020.4 0.0 N 0.0 0.0 0.0
02:12 7.9 4.8 81 1020.4 0.0 N 0.0 0.0 0.0
02:13 7.9 4.8 81 1020.3 0.0 N 0.0 0.0 0.0
02:14 7.9 4.8 81 1020.3 0.0 NNW 0.0 0.0 0.0
02:15 7.9 4.8 81 1020.4 0.0 NNW 0.0 0.0 0.0
02:16 7.9 4.8 81 1020.4 0.0 NNW 0.0 0.0 0.0
02:17 7.9 4.8 81 1020.3 0.0 NNW 0.0 0.0 0.0
02:18 7.9 4.8 81 1020.3 0.0 N 0.0 0.0 0.0
02:19 7.9 4.8 81 1020.4 0.0 N 0.0 0.0 0.0
02:20 7.9 4.8 81 1020.4 0.7 N 0.7 0.0 0.0
02:21 7.9 4.8 81 1020.4 0.7 N 0.7 0.0 0.0
02:23 7.9 4.8 81 1020.2 0.0 N 0.7 0.0 0.0
02:24 8.0 5.1 82 1020.3 0.0 N 0.7 0.0 0.0
02:25 8.0 5.1 82 1020.3 0.0 N 0.7 0.0 0.0
02:26 8.0 5.1 82 1020.4 0.0 N 0.7 0.0 0.0
02:27 8.0 5.1 82 1020.4 0.0 N 0.7 0.0 0.0
02:28 8.0 5.1 82 1020.4 0.0 N 0.7 0.0 0.0
02:29 8.0 5.1 82 1020.4 0.0 N 0.7 0.0 0.0
02:30 8.0 5.1 82 1020.2 0.0 N 0.7 0.0 0.0
02:31 8.1 5.2 82 1020.2 0.0 NNE 0.7 0.0 0.0
02:32 8.1 5.2 82 1020.2 0.0 NNE 0.7 0.0 0.0
02:33 8.1 5.2 82 1020.1 0.0 N 0.0 0.0 0.0
02:34 8.1 5.4 83 1020.3 0.0 N 0.0 0.0 0.0
02:35 8.1 5.4 83 1020.2 0.0 N 0.0 0.0 0.0
02:36 8.2 5.5 83 1020.2 0.0 N 0.0 0.0 0.0
02:37 8.2 5.5 83 1020.2 0.0 N 0.0 0.0 0.0
02:38 8.2 5.5 83 1020.3 0.0 N 0.0 0.0 0.0
02:39 8.2 5.5 83 1020.3 0.0 N 0.0 0.0 0.0
02:41 8.2 5.5 83 1020.2 0.0 N 0.0 0.0 0.0
02:42 8.2 5.5 83 1020.4 0.0 N 0.0 0.0 0.0
02:43 8.2 5.5 83 1020.4 0.0 N 0.0 0.0 0.0
02:44 8.3 5.6 83 1020.2 0.0 NW 0.0 0.0 0.0
02:45 8.3 5.6 83 1020.3 0.0 NW 0.0 0.0 0.0
02:46 8.3 5.6 83 1020.2 0.0 NW 0.0 0.0 0.0
02:47 8.3 5.6 83 1020.2 0.0 NW 0.0 0.0 0.0
02:48 8.3 5.6 83 1020.2 0.0 NW 0.0 0.0 0.0
02:49 8.3 5.6 83 1020.3 0.0 NW 0.0 0.0 0.0
02:50 8.3 5.6 83 1020.3 0.0 NW 0.0 0.0 0.0
02:51 8.3 5.6 83 1020.5 0.0 NW 0.0 0.0 0.0
02:52 8.3 5.6 83 1020.3 0.0 NW 0.0 0.0 0.0
02:53 8.3 5.6 83 1020.6 0.0 NW 0.0 0.0 0.0
02:54 8.3 5.6 83 1020.4 0.0 NW 0.0 0.0 0.0
02:55 8.3 5.6 83 1020.5 0.0 N 0.0 0.0 0.0
02:56 8.3 5.6 83 1020.4 0.0 N 0.0 0.0 0.0
02:57 8.3 5.6 83 1020.1 0.0 N 0.0 0.0 0.0
02:59 8.3 5.6 83 1020.5 0.0 NW 0.0 0.0 0.0
03:00 8.3 5.6 83 1020.5 0.0 NW 0.0 0.0 0.0
03:01 8.3 5.6 83 1020.3 0.0 NW 0.0 0.0 0.0
03:02 8.3 5.6 83 1020.4 0.0 NW 0.0 0.0 0.0
03:03 8.3 5.6 83 1020.4 0.0 NW 0.0 0.0 0.0
03:04 8.3 5.6 83 1020.4 0.0 NW 0.0 0.0 0.0
03:05 8.3 5.6 83 1020.4 0.0 NW 0.0 0.0 0.0
03:06 8.3 5.6 83 1020.2 0.0 NW 0.0 0.0 0.0
03:07 8.4 5.7 83 1020.5 0.0 NW 0.0 0.0 0.0
03:08 8.4 5.7 83 1020.4 0.0 NW 0.0 0.0 0.0
03:09 8.4 5.7 83 1020.6 0.0 NW 0.0 0.0 0.0
03:10 8.4 5.7 83 1020.2 0.0 NW 0.0 0.0 0.0
03:11 8.4 5.7 83 1020.3 0.0 NNW 0.0 0.0 0.0
03:12 8.4 5.7 83 1020.2 0.0 N 0.0 0.0 0.0
03:13 8.4 5.7 83 1020.3 0.0 NW 0.0 0.0 0.0
03:14 8.4 5.7 83 1020.5 0.0 N 0.0 0.0 0.0
03:15 8.4 5.7 83 1020.4 0.0 NW 0.0 0.0 0.0
03:16 8.4 5.7 83 1020.4 0.0 NW 0.0 0.0 0.0
03:18 8.4 5.7 83 1020.4 0.0 NW 0.0 0.0 0.0
03:19 8.4 5.7 83 1020.2 0.0 NW 0.0 0.0 0.0
03:20 8.4 5.7 83 1020.4 0.0 NW 0.0 0.0 0.0
03:21 8.4 5.7 83 1020.4 0.0 NW 0.0 0.0 0.0
03:22 8.4 5.7 83 1020.2 0.0 NW 0.0 0.0 0.0
03:23 8.5 5.8 83 1020.6 0.0 NW 0.0 0.0 0.0
03:24 8.5 5.8 83 1020.5 0.0 NW 0.0 0.0 0.0
03:25 8.5 5.8 83 1020.4 0.0 NW 0.0 0.0 0.0
03:26 8.5 5.8 83 1020.4 0.0 N 0.0 0.0 0.0
03:27 8.5 5.8 83 1020.5 0.0 NW 0.0 0.0 0.0
03:28 8.5 5.8 83 1020.3 0.0 N 0.0 0.0 0.0
03:29 8.5 5.8 83 1020.4 0.0 N 0.0 0.0 0.0
03:30 8.5 5.8 83 1020.5 0.0 N 0.0 0.0 0.0
03:31 8.5 5.8 83 1020.5 0.0 NW 0.0 0.0 0.0
03:32 8.5 5.8 83 1020.6 0.0 NW 0.0 0.0 0.0
03:33 8.5 5.8 83 1020.5 0.0 NW 0.0 0.0 0.0
03:35 8.5 5.8 83 1020.5 0.0 NW 0.0 0.0 0.0
03:36 8.5 5.8 83 1020.2 0.0 W 0.0 0.0 0.0
03:37 8.5 5.8 83 1020.5 0.0 NW 0.0 0.0 0.0
03:38 8.5 5.8 83 1020.5 0.0 NW 0.0 0.0 0.0
03:39 8.5 6.0 84 1020.3 0.0 NW 0.0 0.0 0.0
03:40 8.5 6.0 84 1020.3 0.0 NW 0.0 0.0 0.0
03:41 8.5 6.0 84 1020.3 0.0 NW 0.0 0.0 0.0
03:42 8.5 6.0 84 1020.5 0.0 N 0.0 0.0 0.0
03:43 8.6 6.1 84 1020.4 0.0 NW 0.0 0.0 0.0
03:44 8.6 6.1 84 1020.4 0.0 NW 0.0 0.0 0.0
03:45 8.6 6.1 84 1020.5 0.0 WNW 0.0 0.0 0.0
03:46 8.6 6.1 84 1020.4 0.0 NW 0.0 0.0 0.0
03:47 8.6 6.1 84 1020.7 0.0 WSW 0.0 0.0 0.0
03:48 8.6 6.1 84 1020.4 0.0 NW 0.0 0.0 0.0
03:49 8.6 6.1 84 1020.2 0.0 NW 0.0 0.0 0.0
03:50 8.6 6.1 84 1020.2 0.0 NW 0.0 0.0 0.0
03:51 8.6 6.1 84 1020.5 0.0 NW 0.0 0.0 0.0
03:52 8.6 6.1 84 1020.4 0.0 NW 0.0 0.0 0.0
03:54 8.6 6.1 84 1020.6 0.0 N 0.0 0.0 0.0
03:55 8.5 6.0 84 1020.2 0.0 W 0.0 0.0 0.0
03:56 8.5 6.0 84 1020.4 0.0 NW 0.0 0.0 0.0
03:57 8.5 6.0 84 1020.3 0.0 NW 0.0 0.0 0.0
03:58 8.5 6.0 84 1020.5 0.0 NW 0.0 0.0 0.0
03:59 8.5 6.0 84 1020.4 0.0 NW 0.0 0.0 0.0
04:00 8.5 6.0 84 1020.6 0.0 NW 0.0 0.0 0.0
04:01 8.5 6.0 84 1020.2 0.0 NW 0.0 0.0 0.0
04:02 8.5 6.0 84 1020.4 0.0 NW 0.0 0.0 0.0
04:03 8.5 6.0 84 1020.4 0.0 WNW 0.0 0.0 0.0
04:04 8.5 6.0 84 1020.6 0.0 NW 0.0 0.0 0.0
04:05 8.6 6.1 84 1020.5 0.0 NW 0.0 0.0 0.0
04:06 8.6 6.1 84 1020.4 0.0 W 0.0 0.0 0.0
04:07 8.6 6.1 84 1020.4 0.0 WNW 0.0 0.0 0.0
04:08 8.6 6.1 84 1020.3 0.0 NW 0.0 0.0 0.0
04:09 8.6 6.1 84 1020.4 0.0 NW 0.0 0.0 0.0
04:10 8.6 6.1 84 1020.4 0.0 NW 0.0 0.0 0.0
04:12 8.7 6.1 84 1020.4 0.0 WNW 0.0 0.0 0.0
04:13 8.7 6.1 84 1020.4 0.0 NW 0.0 0.0 0.0
04:14 8.7 6.1 84 1020.4 0.0 NW 0.0 0.0 0.0
04:15 8.7 6.1 84 1020.5 0.0 NW 0.0 0.0 0.0
04:16 8.7 6.1 84 1020.5 0.0 NW 0.0 0.0 0.0
04:17 8.7 6.1 84 1020.4 0.0 NW 0.0 0.0 0.0
04:18 8.7 6.1 84 1020.4 0.0 NW 0.0 0.0 0.0
04:19 8.7 6.1 84 1020.4 0.0 NW 0.0 0.0 0.0
04:20 8.7 6.1 84 1020.3 0.0 NW 0.0 0.0 0.0
04:21 8.7 6.1 84 1020.5 0.0 NW 0.0 0.0 0.0
04:22 8.7 6.1 84 1020.4 0.0 NW 0.0 0.0 0.0
04:23 8.7 6.1 84 1020.5 0.0 NW 0.0 0.0 0.0
04:24 8.7 6.1 84 1020.5 0.0 NW 0.0 0.0 0.0
04:25 8.7 6.1 84 1020.3 0.0 NW 0.0 0.0 0.0
04:26 8.7 6.1 84 1020.5 0.0 NW 0.0 0.0 0.0
04:27 8.7 6.1 84 1020.5 0.0 NW 0.0 0.0 0.0
04:28 8.7 6.1 84 1020.4 0.0 NW 0.0 0.0 0.0
04:29 8.7 6.1 84 1020.4 0.0 NW 0.0 0.0 0.0
04:31 8.6 6.1 84 1020.5 0.0 NW 0.0 0.0 0.0
04:32 8.6 6.1 84 1020.6 0.0 NW 0.0 0.0 0.0
04:33 8.6 6.1 84 1020.5 0.0 NW 0.0 0.0 0.0
04:34 8.6 6.1 84 1020.3 0.0 NW 0.0 0.0 0.0
04:35 8.6 6.1 84 1020.3 0.0 NW 0.0 0.0 0.0
04:36 8.6 6.1 84 1020.5 0.0 NW 0.0 0.0 0.0
04:37 8.6 6.1 84 1020.5 0.0 NW 0.0 0.0 0.0
04:38 8.6 6.1 84 1020.3 0.0 NW 0.0 0.0 0.0
04:39 8.5 6.0 84 1020.6 0.0 NW 0.0 0.0 0.0
04:40 8.5 6.0 84 1020.5 0.0 NW 0.0 0.0 0.0
04:41 8.5 6.0 84 1020.6 0.0 NW 0.0 0.0 0.0
04:42 8.5 6.0 84 1020.3 0.0 NW 0.0 0.0 0.0
04:43 8.5 5.8 83 1020.5 0.0 NW 0.0 0.0 0.0
04:44 8.5 5.8 83 1020.6 0.0 NW 0.0 0.0 0.0
04:45 8.5 5.8 83 1020.7 0.0 NW 0.0 0.0 0.0
04:46 8.4 5.7 83 1020.5 0.0 NW 0.0 0.0 0.0
04:47 8.4 5.7 83 1020.6 0.0 NW 0.0 0.0 0.0
04:49 8.4 5.7 83 1020.5 0.0 NW 0.0 0.0 0.0
04:50 8.4 5.7 83 1020.6 0.0 NW 0.0 0.0 0.0
04:51 8.4 5.7 83 1020.7 0.0 NW 0.0 0.0 0.0
04:52 8.3 5.6 83 1020.4 0.0 N 0.0 0.0 0.0
04:53 8.3 5.6 83 1020.6 0.0 N 0.0 0.0 0.0
04:54 8.3 5.6 83 1020.6 0.0 N 0.0 0.0 0.0
04:55 8.3 5.6 83 1020.6 0.0 N 0.0 0.0 0.0
04:56 8.3 5.6 83 1020.5 0.0 N 0.0 0.0 0.0
04:57 8.3 5.6 83 1020.5 0.0 N 0.0 0.0 0.0
04:58 8.3 5.6 83 1020.5 0.0 N 0.0 0.0 0.0
04:59 8.2 5.5 83 1020.6 0.0 N 0.0 0.0 0.0
05:00 8.2 5.5 83 1020.7 0.0 N 0.0 0.0 0.0
05:01 8.2 5.5 83 1020.6 0.0 N 0.0 0.0 0.0
05:02 8.2 5.5 83 1020.7 0.0 N 0.0 0.0 0.0
05:03 8.2 5.5 83 1020.7 0.0 N 0.0 0.0 0.0
05:04 8.2 5.5 83 1020.6 0.0 N 0.0 0.0 0.0
05:05 8.2 5.5 83 1020.6 0.0 N 0.0 0.0 0.0
05:06 8.1 5.4 83 1020.5 0.0 N 0.0 0.0 0.0
05:08 8.1 5.4 83 1020.6 0.0 NW 0.0 0.0 0.0
05:09 8.1 5.4 83 1020.7 0.0 NW 0.0 0.0 0.0
05:10 8.0 5.3 83 1020.7 0.0 NW 0.0 0.0 0.0
05:11 8.0 5.3 83 1020.7 0.0 NW 0.0 0.0 0.0
05:12 8.0 5.3 83 1020.6 0.0 NW 0.0 0.0 0.0
05:13 8.0 5.3 83 1020.7 0.0 NW 0.0 0.0 0.0
05:14 8.0 5.3 83 1020.7 0.0 NW 0.0 0.0 0.0
05:15 8.0 5.3 83 1020.6 0.0 NW 0.0 0.0 0.0
05:16 8.0 5.3 83 1020.7 0.0 NW 0.0 0.0 0.0
05:17 8.0 5.3 83 1020.7 0.0 NW 0.0 0.0 0.0
05:18 7.9 5.2 83 1020.6 0.0 NW 0.0 0.0 0.0
05:19 7.9 5.2 83 1020.6 0.0 NW 0.0 0.0 0.0
05:20 7.9 5.2 83 1020.6 0.0 NW 0.0 0.0 0.0
05:21 7.8 5.1 83 1020.6 0.0 NW 0.0 0.0 0.0
05:22 7.8 5.1 83 1020.6 0.0 NW 0.0 0.0 0.0
05:23 7.8 5.1 83 1020.5 0.0 NW 0.0 0.0 0.0
05:24 7.7 4.8 82 1020.7 0.0 N 0.0 0.0 0.0
05:26 7.7 4.8 82 1020.6 0.0 N 0.0 0.0 0.0
05:27 7.7 4.8 82 1020.6 0.0 N 0.0 0.0 0.0
05:28 7.7 4.8 82 1020.6 0.0 N 0.0 0.0 0.0
05:29 7.7 4.8 82 1020.6 0.0 NW 0.0 0.0 0.0
05:30 7.7 5.0 83 1020.7 0.0 NW 0.0 0.0 0.0
05:31 7.7 5.0 83 1020.9 0.0 NW 0.0 0.0 0.0
05:32 7.7 5.0 83 1020.7 0.0 NW 0.0 0.0 0.0
05:33 7.7 5.0 83 1020.7 0.0 NW 0.0 0.0 0.0
05:34 7.7 5.0 83 1020.8 0.0 NW 0.0 0.0 0.0
05:35 7.7 5.0 83 1020.9 0.0 NW 0.0 0.0 0.0
05:36 7.7 5.0 83 1020.6 0.0 NW 0.0 0.0 0.0
05:37 7.7 5.0 83 1020.9 0.0 NW 0.0 0.0 0.0
05:38 7.7 5.0 83 1020.9 0.0 NW 0.0 0.0 0.0
05:39 7.7 5.0 83 1020.8 0.0 NW 0.0 0.0 0.0
05:41 7.7 5.0 83 1020.6 0.0 NW 0.0 0.0 0.0
05:42 7.7 5.0 83 1020.9 0.0 NW 0.0 0.0 0.0
05:43 7.7 5.0 83 1021.0 0.0 NW 0.0 0.0 0.0
05:44 7.7 5.0 83 1020.7 0.0 NW 0.0 0.0 0.0
05:45 7.7 5.0 83 1021.0 0.0 NW 0.0 0.0 0.0
05:46 7.7 5.0 83 1020.9 0.0 NW 0.0 0.0 0.0
05:47 7.7 5.0 83 1020.9 0.0 NW 0.0 0.0 0.0
05:48 7.7 5.0 83 1021.0 0.0 NW 0.0 0.0 0.0
05:49 7.6 4.9 83 1020.8 0.0 NW 0.0 0.0 0.0
05:50 7.6 4.9 83 1020.9 0.0 NW 0.0 0.0 0.0
05:51 7.6 4.9 83 1021.0 0.0 NW 0.0 0.0 0.0
05:52 7.6 4.9 83 1021.0 0.0 NW 0.0 0.0 0.0
05:53 7.6 4.9 83 1020.9 0.0 NW 0.0 0.0 0.0
05:54 7.6 4.9 83 1021.1 0.0 NW 0.0 0.0 0.0
05:55 7.6 4.9 83 1020.8 0.7 NW 0.7 0.0 0.0
05:56 7.6 4.9 83 1021.0 0.7 NW 0.7 0.0 0.0
05:58 7.6 4.9 83 1020.8 0.0 NW 0.7 0.0 0.0
05:59 7.6 4.9 83 1020.8 0.0 NW 0.7 0.0 0.0
06:00 7.6 5.1 84 1021.0 0.0 NW 0.7 0.0 0.0
06:01 7.6 5.1 84 1020.9 0.0 NW 0.7 0.0 0.0
06:02 7.6 5.1 84 1020.9 0.0 NW 0.7 0.0 0.0
06:03 7.6 5.1 84 1020.9 0.0 NW 0.7 0.0 0.0
06:04 7.6 5.1 84 1020.8 0.0 NW 0.7 0.0 0.0
06:05 7.6 5.1 84 1020.9 0.0 NW 0.7 0.0 0.0
06:06 7.6 5.1 84 1021.0 0.0 NW 0.7 0.0 0.0
06:07 7.6 5.1 84 1021.1 0.0 NW 0.7 0.0 0.0
06:08 7.6 5.1 84 1021.1 0.0 NW 0.0 0.0 0.0
06:09 7.6 5.1 84 1021.1 0.0 NW 0.0 0.0 0.0
06:10 7.6 5.1 84 1021.2 0.0 NW 0.0 0.0 0.0
06:11 7.6 5.1 84 1021.0 0.0 NW 0.0 0.0 0.0
06:12 7.6 5.1 84 1021.0 0.0 NW 0.0 0.0 0.0
06:13 7.7 5.2 84 1021.1 0.7 NW 0.7 0.0 0.0
06:14 7.7 5.2 84 1020.8 0.0 NW 0.7 0.0 0.0
06:16 7.7 5.3 85 1021.0 0.7 W 0.7 0.0 0.0
06:17 7.7 5.3 85 1021.1 0.7 W 0.7 0.0 0.0
06:18 7.7 5.3 85 1020.9 0.0 W 0.7 0.0 0.0
06:19 7.7 5.3 85 1021.0 0.0 NW 0.7 0.0 0.0
06:20 7.8 5.4 85 1020.9 0.0 NW 0.7 0.0 0.0
06:21 7.8 5.4 85 1021.1 0.0 NW 0.7 0.0 0.0
06:22 7.8 5.4 85 1021.1 0.0 NW 0.7 0.0 0.0
06:23 7.8 5.4 85 1020.9 1.6 NW 1.6 0.0 0.0
06:24 7.8 5.4 85 1021.2 1.6 NW 1.6 0.0 0.0
06:25 7.8 5.4 85 1021.1 0.0 NW 1.6 0.0 0.0
06:26 7.8 5.4 85 1021.1 0.0 NW 1.6 0.0 0.0
06:27 7.8 5.6 86 1020.9 0.0 NW 1.6 0.0 0.0
06:28 7.8 5.6 86 1021.1 0.0 NW 1.6 0.0 0.0
06:29 7.9 5.7 86 1020.9 0.0 NW 1.6 0.0 0.0
06:30 7.9 5.7 86 1020.9 0.0 NW 1.6 0.0 0.0
06:31 7.9 5.7 86 1021.3 1.6 NNW 1.6 0.0 0.0
06:32 8.0 5.8 86 1021.2 0.0 NW 1.6 0.0 0.0
06:34 8.0 6.0 87 1021.2 0.0 NW 1.6 0.0 0.0
06:35 8.0 6.0 87 1021.1 0.0 NW 1.6 0.0 0.0
06:36 8.1 6.1 87 1021.3 0.7 NW 1.6 0.0 0.0
06:37 8.1 6.1 87 1021.3 1.6 NW 1.6 0.0 0.0
06:38 8.1 6.1 87 1021.3 0.0 NW 1.6 0.0 0.0
06:39 8.1 6.1 87 1021.0 2.2 NW 2.2 0.0 0.0
06:40 8.2 6.2 87 1021.1 3.1 NNW 3.1 0.0 0.0
06:41 8.2 6.3 88 1021.1 5.4 NW 5.4 0.0 0.0
06:42 8.2 6.3 88 1021.5 5.4 N 5.4 0.0 0.0
06:43 8.3 6.4 88 1021.1 0.0 NW 5.4 0.0 0.0
06:44 8.4 6.5 88 1021.3 0.0 NW 5.4 0.0 0.0
06:45 8.4 6.5 88 1021.4 0.0 NW 5.4 0.0 0.0
06:46 8.5 6.8 89 1021.0 2.2 NW 5.4 0.0 0.0
06:47 8.5 6.8 89 1021.2 2.2 NW 5.4 0.0 0.0
06:48 8.5 6.8 89 1021.2 2.2 NW 5.4 0.0 0.0
06:49 8.6 6.9 89 1021.4 2.2 N 5.4 0.0 0.0
06:50 8.7 7.0 89 1021.4 1.6 NW 5.4 0.0 0.0
06:52 8.7 7.0 89 1021.2 2.2 NW 2.2 0.0 0.0
06:53 8.7 7.0 89 1021.4 2.2 NW 2.2 0.0 0.0
06:54 8.8 7.1 89 1021.1 1.6 NW 2.2 0.0 0.0
06:55 8.8 7.1 89 1021.2 1.6 N 2.2 0.0 0.0
06:56 8.9 7.2 89 1021.3 2.2 NW 2.2 0.0 0.0
06:57 8.9 7.2 89 1021.3 2.2 NW 2.2 0.0 0.0
06:58 8.9 7.2 89 1021.5 0.7 NW 2.2 0.0 0.0
06:59 9.0 7.3 89 1021.0 1.6 N 2.2 0.0 0.0
07:00 9.0 7.3 89 1021.2 1.6 NW 2.2 0.0 0.0
07:01 9.0 7.3 89 1021.3 1.6 NW 2.2 0.0 0.0
07:02 9.0 7.3 89 1021.2 1.6 NW 2.2 0.0 0.0
07:03 9.0 7.3 89 1021.0 1.6 NW 2.2 0.0 0.0
07:04 9.0 7.3 89 1021.2 1.6 NW 2.2 0.0 0.0
07:05 9.0 7.3 89 1021.5 1.6 NW 2.2 0.0 0.0
07:06 9.3 7.6 89 1021.1 2.2 NW 2.2 0.0 0.0
07:08 9.3 7.6 89 1021.2 0.7 NW 2.2 0.0 0.0
07:09 9.4 7.7 89 1021.1 1.6 N 2.2 0.0 0.0
07:10 9.5 7.8 89 1021.3 1.6 WNW 2.2 0.0 0.0
07:11 9.5 7.8 89 1021.4 1.6 NW 2.2 0.0 0.0
07:12 9.6 7.9 89 1021.3 3.8 W 3.8 0.0 0.0
07:13 9.6 7.9 89 1021.3 3.1 W 3.8 0.0 0.0
07:14 9.6 7.9 89 1021.3 3.1 W 3.8 0.0 0.0
07:15 9.6 7.9 89 1021.5 2.2 NW 3.8 0.0 0.0
07:16 9.7 8.0 89 1021.4 3.1 N 3.8 0.0 0.0
07:17 9.7 8.0 89 1021.3 3.1 N 3.8 0.0 0.0
07:18 9.8 8.1 89 1021.4 2.2 W 3.8 0.0 0.0
07:19 9.8 8.1 89 1021.4 2.2 NNW 3.8 0.0 0.0
07:20 9.8 8.1 89 1021.4 2.2 NNW 3.8 0.0 0.0
07:21 9.9 8.2 89 1021.4 1.6 NW 3.8 0.0 0.0
07:22 10.0 8.1 88 1021.4 1.6 NW 3.8 0.0 0.0
07:23 10.0 8.1 88 1021.5 3.1 N 3.1 0.0 0.0
07:25 10.1 8.2 88 1021.4 2.2 W 3.1 0.0 0.0
07:26 10.1 8.2 88 1021.6 2.2 W 3.1 0.0 0.0
07:27 10.2 8.3 88 1021.4 3.1 NE 3.1 0.0 0.0
07:28 10.2 8.3 88 1021.5 2.2 NW 3.1 0.0 0.0
07:29 10.2 8.3 88 1021.4 2.2 NW 3.1 0.0 0.0
07:30 10.3 8.2 87 1021.4 2.2 W 3.1 0.0 0.0
07:31 10.3 8.2 87 1021.5 2.2 W 3.1 0.0 0.0
07:32 10.4 8.3 87 1021.7 3.1 N 3.1 0.0 0.0
07:33 10.4 8.3 87 1021.6 3.1 NNW 3.1 0.0 0.0
07:34 10.4 8.3 87 1021.5 5.4 NW 5.4 0.0 0.0
07:35 10.5 8.4 87 1021.4 4.5 SW 5.4 0.0 0.0
07:36 10.5 8.4 87 1021.4 4.5 S 5.4 0.0 0.0
07:37 10.6 8.5 87 1021.5 2.2 N 5.4 0.0 0.0
07:38 10.6 8.5 87 1021.4 2.2 N 5.4 0.0 0.0
07:39 10.7 8.5 86 1021.7 4.5 N 5.4 0.0 0.0
07:40 10.7 8.5 86 1021.6 5.4 N 5.4 0.0 0.0
07:41 10.8 8.6 86 1021.4 4.5 N 6.9 0.0 0.0
07:42 10.8 8.6 86 1021.4 2.2 W 6.9 0.0 0.0
07:44 11.0 8.6 85 1021.6 3.1 NW 6.9 0.0 0.0
07:45 11.0 8.6 85 1021.6 1.6 NW 6.9 0.0 0.0
07:46 11.0 8.6 85 1021.5 1.6 W 6.9 0.0 0.0
07:47 11.1 8.7 85 1021.6 4.5 W 6.9 0.0 0.0
07:48 11.1 8.7 85 1021.6 3.8 N 6.9 0.0 0.0
07:49 11.2 8.6 84 1021.4 4.5 N 6.9 0.0 0.0
07:50 11.2 8.6 84 1021.4 4.5 N 6.9 0.0 0.0
07:51 11.2 8.6 84 1021.5 6.9 N 6.9 0.0 0.0
07:52 11.2 8.6 84 1021.5 5.4 NW 6.9 0.0 0.0
07:53 11.3 8.7 84 1021.7 4.5 W 6.9 0.0 0.0
07:54 11.3 8.7 84 1021.6 5.4 NW 6.9 0.0 0.0
07:55 11.3 8.7 84 1021.6 3.8 N 6.9 0.0 0.0
07:56 11.4 8.8 84 1021.5 3.1 W 6.9 0.0 0.0
07:57 11.4 8.8 84 1021.5 3.1 W 6.9 0.0 0.0
07:58 11.5 8.7 83 1021.4 8.3 NE 8.3 0.0 0.0
07:59 11.5 8.7 83 1021.5 4.5 N 8.3 0.0 0.0
08:00 11.6 8.8 83 1021.6 4.5 N 8.3 0.0 0.0
08:01 11.6 8.8 83 1021.4 4.5 N 8.3 0.0 0.0
08:03 11.7 8.9 83 1021.5 6.0 N 8.3 0.0 0.0
08:04 11.8 9.0 83 1021.5 6.9 S 8.3 0.0 0.0
08:05 11.9 9.1 83 1021.6 6.0 NW 8.3 0.0 0.0
08:06 11.9 9.1 83 1021.5 4.5 NW 8.3 0.0 0.0
08:07 12.0 9.0 82 1021.5 4.5 NNE 8.3 0.0 0.0
08:08 12.0 9.0 82 1021.6 4.5 N 8.3 0.0 0.0
08:09 12.0 9.0 82 1021.6 4.5 N 6.9 0.0 0.0
08:10 12.0 9.0 82 1021.5 5.4 N 6.9 0.0 0.0
08:11 12.0 9.0 82 1021.6 6.0 W 6.9 0.0 0.0
08:12 12.1 9.1 82 1021.7 5.4 N 6.9 0.0 0.0
08:13 12.1 9.1 82 1021.6 5.4 NW 6.9 0.0 0.0
08:14 12.1 9.1 82 1021.7 7.6 NW 7.6 0.0 0.0
08:15 12.1 8.9 81 1021.6 3.8 NW 7.6 0.0 0.0
08:16 12.1 8.9 81 1021.7 3.8 NW 7.6 0.0 0.0
08:17 12.0 8.8 81 1021.7 6.9 NW 7.6 0.0 0.0
08:18 12.0 8.8 81 1021.6 6.9 WNW 7.6 0.0 0.0
08:19 12.0 8.8 81 1021.8 3.1 NW 7.6 0.0 0.0
08:20 12.1 8.9 81 1021.7 4.5 NW 7.6 0.0 0.0
08:22 12.1 8.9 81 1021.6 5.4 W 7.6 0.0 0.0
08:23 12.1 8.9 81 1021.6 6.0 NW 7.6 0.0 0.0
08:24 12.2 9.0 81 1021.8 3.1 NE 7.6 0.0 0.0
08:25 12.2 9.0 81 1021.7 6.9 N 6.9 0.0 0.0
08:26 12.3 9.1 81 1021.6 6.0 NE 6.9 0.0 0.0
08:27 12.3 9.1 81 1021.6 4.5 NNW 6.9 0.0 0.0
08:28 12.4 9.2 81 1021.9 6.9 SW 6.9 0.0 0.0
08:29 12.5 9.0 79 1021.7 6.9 WNW 6.9 0.0 0.0
08:30 12.5 9.0 79 1021.8 8.3 NW 8.3 0.0 0.0
08:31 12.6 9.1 79 1021.7 5.4 NW 8.3 0.0 0.0
08:32 12.6 9.1 79 1021.7 8.3 NW 8.3 0.0 0.0
08:33 12.6 9.1 79 1021.7 7.6 N 8.3 0.0 0.0
08:34 12.6 9.1 79 1021.8 4.5 WNW 8.3 0.0 0.0
08:35 12.6 8.9 78 1021.8 6.9 NE 8.3 0.0 0.0
08:36 12.7 9.0 78 1021.8 10.7 N 10.7 0.0 0.0
08:37 12.7 9.0 78 1021.7 6.9 W 10.7 0.0 0.0
08:38 12.7 8.8 77 1021.8 8.3 NW 10.7 0.0 0.0
08:40 12.7 8.8 77 1021.7 5.4 N 10.7 0.0 0.0
08:41 12.7 8.8 77 1021.9 6.9 NE 10.7 0.0 0.0
08:42 12.7 8.6 76 1021.8 6.9 NNE 10.7 0.0 0.0
08:43 12.7 8.6 76 1021.7 3.8 NW 10.7 0.0 0.0
08:44 12.8 8.7 76 1021.9 8.3 NW 10.7 0.0 0.0
08:45 12.8 8.7 76 1021.9 6.9 NW 10.7 0.0 0.0
08:46 12.8 8.7 76 1021.9 6.9 NW 10.7 0.0 0.0
08:47 12.9 8.8 76 1021.9 4.5 N 8.3 0.0 0.0
08:48 12.9 8.6 75 1022.0 3.8 NNW 8.3 0.0 0.0
08:49 12.9 8.6 75 1021.9 6.0 N 8.3 0.0 0.0
08:50 12.9 8.6 75 1021.8 6.0 W 8.3 0.0 0.0
08:51 12.9 8.6 75 1021.8 3.8 NW 8.3 0.0 0.0
08:52 12.9 8.6 75 1021.9 6.9 W 8.3 0.0 0.0
08:53 12.8 8.5 75 1021.7 8.3 WNW 8.3 0.0 0.0
08:54 12.8 8.3 74 1021.8 3.8 NW 8.3 0.0 0.0
08:55 12.7 8.2 74 1021.9 5.4 NW 8.3 0.0 0.0
08:56 12.7 8.2 74 1021.8 6.9 W 8.3 0.0 0.0
08:57 12.7 8.2 74 1021.9 3.8 W 8.3 0.0 0.0
08:59 12.7 8.4 75 1021.8 4.5 W 8.3 0.0 0.0
09:00 12.7 8.4 75 1021.7 8.3 SW 8.3 0.0 0.0
09:01 12.7 8.4 75 1021.8 8.3 SW 8.3 0.0 0.0
09:02 12.7 8.4 75 1022.0 8.3 SW 8.3 0.0 0.0
09:03 12.7 8.4 75 1021.9 8.3 SW 8.3 0.0 0.0
09:04 12.7 8.4 75 1022.0 8.3 SW 8.3 0.0 0.0
09:05 12.7 8.4 75 1022.0 8.3 SW 8.3 0.0 0.0
09:06 12.7 8.4 75 1021.9 8.3 SW 8.3 0.0 0.0
09:07 12.8 8.3 74 1022.2 5.4 N 8.3 0.0 0.0
09:08 12.8 8.3 74 1021.7 5.4 WNW 8.3 0.0 0.0
09:09 12.8 8.3 74 1022.1 6.0 W 8.3 0.0 0.0
09:10 12.8 8.3 74 1022.1 6.9 NNW 8.3 0.0 0.0
09:11 12.7 8.2 74 1022.0 6.0 NW 8.3 0.0 0.0
09:12 12.7 8.2 74 1022.0 6.9 NW 8.3 0.0 0.0
09:13 12.7 8.0 73 1022.2 5.4 N 8.3 0.0 0.0
09:14 12.6 7.9 73 1022.0 3.8 N 8.3 0.0 0.0
09:15 12.6 7.9 73 1022.1 6.9 NW 8.3 0.0 0.0
09:16 12.6 7.9 73 1022.1 6.0 NW 6.9 0.0 0.0
09:18 12.6 7.9 73 1022.0 6.9 W 6.9 0.0 0.0
09:19 12.6 7.9 73 1022.1 7.6 NW 7.6 0.0 0.0
09:20 12.5 7.8 73 1022.1 6.9 N 7.6 0.0 0.0
09:21 12.5 7.8 73 1022.1 5.4 N 7.6 0.0 0.0
09:22 12.5 7.8 73 1022.1 4.5 NW 7.6 0.0 0.0
09:23 12.5 7.8 73 1022.0 7.6 NW 7.6 0.0 0.0
09:24 12.5 7.8 73 1022.0 7.6 NW 7.6 0.0 0.0
09:25 12.5 7.8 73 1022.0 4.5 W 7.6 0.0 0.0
09:26 12.5 7.8 73 1022.2 4.5 N 7.6 0.0 0.0
09:27 12.6 7.9 73 1022.0 6.9 N 7.6 0.0 0.0
09:28 12.6 7.9 73 1022.3 5.4 NW 7.6 0.0 0.0
09:29 12.6 7.9 73 1022.3 9.2 SW 9.2 0.0 0.0
09:30 12.7 8.0 73 1022.1 9.2 N 9.2 0.0 0.0
09:31 12.7 8.0 73 1022.1 6.0 N 9.2 0.0 0.0
09:32 12.8 8.1 73 1022.2 7.6 W 9.2 0.0 0.0
09:33 12.8 8.1 73 1022.4 8.3 W 9.2 0.0 0.0
09:34 12.9 8.2 73 1022.0 4.5 W 9.2 0.0 0.0
09:35 13.0 8.3 73 1022.2 5.4 W 9.2 0.0 0.0
09:37 13.1 8.4 73 1022.3 6.0 N 9.2 0.0 0.0
09:38 13.1 8.4 73 1022.2 6.9 W 9.2 0.0 0.0
09:39 13.1 8.2 72 1022.2 6.0 W 9.2 0.0 0.0
09:40 13.2 8.3 72 1022.0 6.0 N 8.3 0.0 0.0
09:41 13.4 8.5 72 1022.2 6.0 N 9.2 0.0 0.0
09:42 13.5 8.6 72 1022.2 6.0 N 9.2 0.0 0.0
09:43 13.6 8.7 72 1022.0 3.1 W 9.2 0.0 0.0
09:44 13.6 8.7 72 1022.2 3.1 W 9.2 0.0 0.0
09:45 13.9 8.9 72 1022.0 7.6 N 9.2 0.0 0.0
09:46 14.0 9.0 72 1022.2 5.4 N 9.2 0.0 0.0
09:47 14.1 8.9 71 1022.2 13.0 N 13.0 0.0 0.0
09:48 14.2 9.0 71 1022.1 10.7 N 13.0 0.0 0.0
09:49 14.2 9.0 71 1022.3 10.7 N 13.0 0.0 0.0
09:50 14.2 9.0 71 1022.2 13.0 NW 13.0 0.0 0.0
09:51 14.2 8.8 70 1022.2 7.6 NNW 13.0 0.0 0.0
09:52 14.2 8.8 70 1022.2 9.2 NW 13.0 0.0 0.0
09:53 14.2 8.8 70 1022.2 6.9 SW 13.0 0.0 0.0
09:54 14.1 8.5 69 1022.2 6.9 SSW 13.0 0.0 0.0
09:56 14.1 8.5 69 1022.2 8.3 SE 13.0 0.0 0.0
09:57 14.2 8.6 69 1022.3 6.0 N 13.0 0.0 0.0
09:58 14.2 8.8 70 1022.2 9.8 N 13.0 0.0 0.0
09:59 14.3 8.9 70 1022.2 7.6 W 13.0 0.0 0.0
10:00 14.4 9.0 70 1022.3 4.5 N 9.8 0.0 0.0
10:01 14.5 9.1 70 1022.3 8.3 W 9.8 0.0 0.0
10:02 14.5 9.1 70 1022.3 8.3 W 9.8 0.0 0.0
10:03 14.6 9.2 70 1022.2 8.3 N 9.8 0.0 0.0
10:04 14.6 9.0 69 1022.2 5.4 W 9.8 0.0 0.0
10:05 14.7 9.1 69 1022.2 8.3 NW 9.8 0.0 0.0
10:06 14.7 9.1 69 1022.3 7.6 N 9.8 0.0 0.0
10:07 14.7 9.1 69 1022.2 9.8 NNW 9.8 0.0 0.0
10:08 14.7 9.1 69 1022.4 9.8 N 9.8 0.0 0.0
10:09 14.7 9.1 69 1022.2 10.7 N 10.7 0.0 0.0
10:10 14.8 9.2 69 1022.3 6.0 NE 10.7 0.0 0.0
10:11 14.9 9.3 69 1022.3 5.4 E 10.7 0.0 0.0
10:12 15.0 9.4 69 1022.1 8.3 SW 10.7 0.0 0.0
10:14 15.1 9.5 69 1022.2 8.3 W 10.7 0.0 0.0
10:15 15.1 9.5 69 1022.4 6.0 W 10.7 0.0 0.0
10:16 15.1 9.2 68 1022.1 9.8 N 10.7 0.0 0.0
10:17 14.9 8.8 67 1022.2 9.2 N 10.7 0.0 0.0
10:18 14.8 8.5 66 1022.4 10.7 NW 10.7 0.0 0.0
10:19 14.7 8.4 66 1022.3 10.7 NW 10.7 0.0 0.0
10:20 14.7 8.4 66 1022.4 8.3 N 10.7 0.0 0.0
10:21 14.7 8.4 66 1022.4 13.6 NW 13.6 0.0 0.0
10:22 14.7 8.6 67 1022.2 13.0 N 13.6 0.0 0.0
10:23 14.7 8.6 67 1022.2 8.3 NW 13.6 0.0 0.0
10:24 14.7 8.9 68 1022.5 8.3 N 13.6 0.0 0.0
10:25 14.8 9.0 68 1022.2 9.8 WSW 13.6 0.0 0.0
10:26 14.9 9.3 69 1022.2 5.4 NE 13.6 0.0 0.0
10:27 15.0 9.4 69 1022.5 8.3 N 13.6 0.0 0.0
10:28 15.0 9.4 69 1022.5 9.8 N 13.6 0.0 0.0
10:29 15.1 9.5 69 1022.4 13.0 E 13.6 0.0 0.0
10:30 15.1 9.2 68 1022.3 9.2 N 13.6 0.0 0.0
10:31 15.1 9.0 67 1022.2 8.3 N 13.0 0.0 0.0
10:33 15.3 9.4 68 1022.4 10.7 NW 13.0 0.0 0.0
10:34 15.3 9.4 68 1022.3 6.9 N 13.0 0.0 0.0
10:35 15.3 9.2 67 1022.2 6.0 W 13.0 0.0 0.0
10:36 15.4 9.3 67 1022.4 8.3 SW 13.0 0.0 0.0
10:37 15.4 9.1 66 1022.4 11.4 N 13.0 0.0 0.0
10:38 15.5 9.2 66 1022.3 11.4 NNW 13.0 0.0 0.0
10:39 15.5 9.2 66 1022.5 11.4 NNW 11.4 0.0 0.0
10:40 15.4 8.9 65 1022.5 6.9 N 11.4 0.0 0.0
10:41 15.4 8.6 64 1022.6 6.0 NW 11.4 0.0 0.0
10:42 15.4 8.6 64 1022.2 5.4 NW 11.4 0.0 0.0
10:43 15.4 8.9 65 1022.4 9.2 N 11.4 0.0 0.0
10:44 15.5 9.0 65 1022.4 8.3 NW 11.4 0.0 0.0
10:45 15.5 9.0 65 1022.4 9.8 NNW 11.4 0.0 0.0
10:46 15.6 9.1 65 1022.3 7.6 W 11.4 0.0 0.0
10:47 15.7 9.1 65 1022.5 12.1 NW 12.1 0.0 0.0
10:48 15.7 8.9 64 1022.6 9.8 N 12.1 0.0 0.0
10:49 15.7 8.9 64 1022.3 6.0 W 12.1 0.0 0.0
10:50 15.6 8.8 64 1022.3 3.8 N 12.1 0.0 0.0
10:52 15.6 8.8 64 1022.5 6.0 WNW 12.1 0.0 0.0
10:53 15.6 8.6 63 1022.6 7.6 W 12.1 0.0 0.0
10:54 15.5 8.5 63 1022.3 9.2 NW 12.1 0.0 0.0
10:55 15.4 8.4 63 1022.4 9.2 NNE 12.1 0.0 0.0
10:56 15.5 8.7 64 1022.4 6.0 NW 12.1 0.0 0.0
10:57 15.6 9.5 67 1022.4 6.9 WSW 12.1 0.0 0.0
10:58 15.6 9.5 67 1022.4 6.9 WSW 10.7 0.0 0.0
10:59 15.7 9.4 66 1022.4 6.9 NW 10.7 0.0 0.0
11:00 15.7 9.4 66 1022.4 5.4 SW 10.7 0.0 0.0
11:01 15.7 9.4 66 1022.3 5.4 SW 10.7 0.0 0.0
11:02 15.7 9.4 66 1022.4 5.4 SW 10.7 0.0 0.0
11:03 15.7 9.4 66 1022.3 5.4 SW 10.7 0.0 0.0
11:04 15.7 9.4 66 1022.2 5.4 SW 9.2 0.0 0.0
11:05 15.7 9.4 66 1022.4 5.4 SW 9.2 0.0 0.0
11:06 15.7 9.4 66 1022.3 9.8 NNW 9.8 0.0 0.0
11:07 15.7 9.1 65 1022.5 8.3 W 9.8 0.0 0.0
11:08 15.7 9.1 65 1022.4 6.0 W 9.8 0.0 0.0
11:09 15.7 9.4 66 1022.4 6.9 NNW 9.8 0.0 0.0
11:11 15.5 8.7 64 1022.5 4.5 WNW 9.8 0.0 0.0
11:12 15.4 8.6 64 1022.3 6.0 NW 9.8 0.0 0.0
11:14 15.4 8.6 64 1022.7 9.8 W 9.8 0.0 0.0
11:15 15.4 8.6 64 1022.3 9.8 NW 9.8 0.0 0.0
11:16 15.4 8.6 64 1022.5 9.8 NW 9.8 0.0 0.0
11:17 15.3 8.3 63 1022.5 9.2 W 9.8 0.0 0.0
11:18 15.3 8.3 63 1022.4 9.2 NW 9.8 0.0 0.0
11:19 15.4 8.6 64 1022.5 9.2 NW 9.8 0.0 0.0
11:20 15.4 8.6 64 1022.6 5.4 SW 9.8 0.0 0.0
11:21 15.5 9.0 65 1022.5 7.6 W 9.8 0.0 0.0
11:22 15.5 9.0 65 1022.5 6.9 WNW 9.8 0.0 0.0
11:23 15.6 8.8 64 1022.5 8.3 NW 9.8 0.0 0.0
11:24 15.7 8.9 64 1022.5 6.0 NW 9.8 0.0 0.0
11:25 15.7 8.9 64 1022.7 6.9 NW 9.8 0.0 0.0
11:26 15.7 8.9 64 1022.4 9.2 W 9.8 0.0 0.0
11:27 15.7 8.7 63 1022.6 12.1 NNW 12.1 0.0 0.0
11:28 15.6 8.4 62 1022.6 12.1 NW 12.1 0.0 0.0
11:29 15.6 8.4 62 1022.5 8.3 N 12.1 0.0 0.0
11:30 15.6 8.8 64 1022.5 6.9 N 12.1 0.0 0.0
11:31 15.7 9.1 65 1022.5 6.9 NW 12.1 0.0 0.0
11:33 16.0 9.7 66 1022.5 7.6 NNE 12.1 0.0 0.0
11:34 16.1 9.5 65 1022.5 6.0 N 12.1 0.0 0.0
11:35 16.1 9.3 64 1022.5 13.0 NW 13.0 0.0 0.0
11:36 16.1 9.3 64 1022.5 13.0 NW 13.0 0.0 0.0
11:37 16.1 8.8 62 1022.6 6.9 N 13.0 0.0 0.0
11:38 16.1 8.8 62 1022.6 12.1 WNW 13.0 0.0 0.0
11:39 16.1 8.8 62 1022.6 12.1 WNW 13.0 0.0 0.0
11:40 16.0 8.5 61 1022.5 13.6 NW 13.6 0.0 0.0
11:41 15.9 8.4 61 1022.4 13.6 W 13.6 0.0 0.0
11:42 15.9 8.4 61 1022.5 13.6 W 13.6 0.0 0.0
11:43 15.8 8.5 62 1022.5 9.8 NW 13.6 0.0 0.0
11:44 15.8 8.5 62 1022.5 8.3 W 13.6 0.0 0.0
11:45 15.9 8.9 63 1022.5 6.0 SW 13.6 0.0 0.0
11:46 16.0 9.0 63 1022.7 9.2 WNW 13.6 0.0 0.0
11:47 16.1 9.1 63 1022.8 6.0 NW 13.6 0.0 0.0
11:48 16.2 8.9 62 1022.4 6.0 NE 13.6 0.0 0.0
11:49 16.3 9.0 62 1022.6 3.1 NW 13.6 0.0 0.0
11:50 16.4 9.6 64 1022.6 3.8 N 13.6 0.0 0.0
11:52 16.6 9.5 63 1022.7 8.3 NE 12.1 0.0 0.0
11:53 16.6 9.3 62 1022.6 6.9 SW 10.7 0.0 0.0
11:54 16.6 9.3 62 1022.6 5.4 N 10.7 0.0 0.0
11:55 16.7 9.4 62 1022.7 4.5 SW 10.7 0.0 0.0
11:56 16.7 9.4 62 1022.6 5.4 NW 10.7 0.0 0.0
11:57 16.8 9.7 63 1022.7 10.7 N 10.7 0.0 0.0
11:58 16.8 9.7 63 1022.7 10.7 N 10.7 0.0 0.0
11:59 16.8 9.2 61 1022.6 10.7 NW 12.1 0.0 0.0
12:00 16.9 9.3 61 1022.9 9.2 W 12.1 0.0 0.0
12:01 16.9 9.3 61 1022.7 9.2 W 12.1 0.0 0.0
12:02 16.9 9.3 61 1022.8 9.2 W 12.1 0.0 0.0
12:03 16.9 9.3 61 1022.7 9.2 W 12.1 0.0 0.0
12:04 16.9 9.3 61 1022.8 9.2 W 12.1 0.0 0.0
12:05 16.9 9.3 61 1022.8 9.2 W 12.1 0.0 0.0
12:06 16.7 9.1 61 1022.7 10.7 NW 12.1 0.0 0.0
12:07 16.4 8.4 59 1022.7 7.6 NNW 12.1 0.0 0.0
12:08 16.3 8.3 59 1022.8 9.2 N 12.1 0.0 0.0
12:09 16.2 8.4 60 1022.7 8.3 N 10.7 0.0 0.0
12:11 16.3 8.5 60 1022.7 9.2 N 11.4 0.0 0.0
12:12 16.3 8.5 60 1022.7 10.7 N 11.4 0.0 0.0
12:13 16.5 9.0 61 1022.8 11.4 N 11.4 0.0 0.0
12:14 16.5 9.2 62 1022.8 10.7 N 11.4 0.0 0.0
12:15 16.5 9.2 62 1022.8 6.0 W 11.4 0.0 0.0
12:16 16.6 9.5 63 1022.9 9.2 N 11.4 0.0 0.0
12:17 16.7 9.6 63 1022.7 8.3 NW 11.4 0.0 0.0
12:18 16.6 9.3 62 1022.8 9.2 WNW 11.4 0.0 0.0
12:19 16.5 9.0 61 1022.7 12.1 N 12.1 0.0 0.0
12:20 16.4 9.1 62 1022.9 9.8 SE 12.1 0.0 0.0
12:21 16.4 9.1 62 1022.7 6.9 N 12.1 0.0 0.0
12:22 16.4 9.1 62 1022.8 13.0 NW 13.0 0.0 0.0
12:23 16.2 8.7 61 1022.8 12.1 N 13.0 0.0 0.0
12:24 16.1 8.6 61 1022.8 8.3 NNW 13.0 0.0 0.0
12:25 16.0 8.2 60 1022.7 8.3 NNE 13.0 0.0 0.0
12:26 15.9 8.2 60 1022.8 9.8 NW 13.0 0.0 0.0
12:27 15.8 8.3 61 1022.9 7.6 NE 13.0 0.0 0.0
12:29 16.2 9.2 63 1022.7 9.2 NE 13.0 0.0 0.0
12:30 16.2 9.2 63 1022.9 6.9 W 13.0 0.0 0.0
12:31 16.2 8.9 62 1022.9 9.2 NNW 13.0 0.0 0.0
12:32 16.2 8.9 62 1023.0 9.2 NNW 13.0 0.0 0.0
12:33 16.0 8.2 60 1022.8 6.9 S 12.1 0.0 0.0
12:34 16.0 8.2 60 1022.6 15.9 NE 15.9 0.0 0.0
12:35 16.0 8.2 60 1023.0 7.6 W 15.9 0.0 0.0
12:36 16.1 8.6 61 1022.8 9.2 SW 15.9 0.0 0.0
12:37 16.2 8.7 61 1022.8 9.2 SE 15.9 0.0 0.0
12:38 16.3 8.8 61 1022.8 11.4 NW 15.9 0.0 0.0
12:39 16.4 8.9 61 1022.9 6.9 N 15.9 0.0 0.0
12:40 16.3 8.8 61 1023.0 9.2 N 15.9 0.0 0.0
12:41 16.3 8.8 61 1022.9 6.9 N 15.9 0.0 0.0
12:42 16.3 8.8 61 1022.7 6.9 N 15.9 0.0 0.0
12:43 16.3 8.8 61 1022.9 10.7 N 15.9 0.0 0.0
12:44 16.3 8.8 61 1022.7 9.8 NW 15.9 0.0 0.0
12:45 16.4 8.9 61 1022.7 9.2 N 11.4 0.0 0.0
12:46 16.5 9.2 62 1023.0 8.3 WNW 11.4 0.0 0.0
12:47 16.6 9.3 62 1022.9 8.3 ENE 11.4 0.0 0.0
12:49 16.8 9.5 62 1023.0 9.8 NNE 10.7 0.0 0.0
12:50 16.7 9.1 61 1022.7 13.0 NW 13.0 0.0 0.0
12:51 16.5 8.5 59 1022.9 9.8 NW 13.0 0.0 0.0
12:52 16.4 8.4 59 1022.8 5.4 N 13.0 0.0 0.0
12:53 16.3 8.5 60 1022.8 7.6 NW 13.0 0.0 0.0
12:54 16.3 8.8 61 1022.8 8.3 N 13.0 0.0 0.0
12:55 16.2 8.7 61 1022.9 6.0 WSW 13.0 0.0 0.0
12:56 16.2 8.7 61 1022.8 8.3 W 13.0 0.0 0.0
12:57 16.1 8.3 60 1022.7 8.3 NW 13.0 0.0 0.0
12:58 16.1 8.3 60 1022.8 9.2 N 13.0 0.0 0.0
12:59 16.2 8.4 60 1022.9 11.4 W 13.0 0.0 0.0
13:00 16.2 8.2 59 1022.9 14.5 NW 14.5 0.0 0.0
13:01 16.2 8.2 59 1023.0 14.5 NW 14.5 0.0 0.0
13:02 16.2 8.2 59 1023.1 14.5 NW 14.5 0.0 0.0
13:03 16.2 8.2 59 1023.1 14.5 NW 14.5 0.0 0.0
13:04 16.2 8.2 59 1023.0 14.5 NW 14.5 0.0 0.0
13:05 16.5 8.5 59 1023.1 12.1 W 14.5 0.0 0.0
13:06 16.6 8.3 58 1022.8 9.8 S 14.5 0.0 0.0
13:08 16.6 8.3 58 1023.0 6.9 NNW 14.5 0.0 0.0
13:09 16.7 8.4 58 1023.1 12.1 SW 14.5 0.0 0.0
13:10 16.7 8.7 59 1022.9 8.3 WSW 14.5 0.0 0.0
13:11 16.7 8.7 59 1022.9 7.6 WNW 14.5 0.0 0.0
13:12 16.7 8.7 59 1022.9 9.2 N 14.5 0.0 0.0
13:13 16.8 8.7 59 1022.8 9.2 SW 14.5 0.0 0.0
13:14 16.8 8.7 59 1023.0 8.3 NNW 14.5 0.0 0.0
13:15 16.9 8.8 59 1023.0 6.0 W 12.1 0.0 0.0
13:16 16.9 9.1 60 1022.9 9.8 E 12.1 0.0 0.0
13:17 17.1 9.3 60 1023.1 10.7 NNW 12.1 0.0 0.0
13:18 17.2 9.4 60 1023.0 9.8 SW 12.1 0.0 0.0
13:19 17.2 9.4 60 1023.1 8.3 NW 12.1 0.0 0.0
13:20 17.2 9.4 60 1022.8 10.7 NW 10.7 0.0 0.0
13:21 17.2 9.4 60 1023.0 9.2 SSW 10.7 0.0 0.0
13:22 17.2 9.6 61 1023.0 6.9 W 10.7 0.0 0.0
13:23 17.1 9.5 61 1023.1 9.8 W 10.7 0.0 0.0
13:24 17.0 9.2 60 1023.0 9.8 NW 10.7 0.0 0.0
13:25 16.9 8.8 59 1023.0 9.8 NW 10.7 0.0 0.0
13:26 16.7 8.7 59 1023.1 9.8 N 10.7 0.0 0.0
13:27 16.5 8.7 60 1023.0 6.0 WNW 10.7 0.0 0.0
13:28 16.4 8.4 59 1023.0 9.2 W 10.7 0.0 0.0
13:29 16.3 8.3 59 1023.0 8.3 N 10.7 0.0 0.0
13:30 16.3 8.3 59 1023.0 9.2 NNW 10.7 0.0 0.0
13:31 16.4 8.6 60 1023.1 11.4 W 11.4 0.0 0.0
13:32 16.4 8.6 60 1023.1 11.4 NW 11.4 0.0 0.0
13:34 16.4 8.6 60 1023.0 9.2 NE 12.1 0.0 0.0
13:35 16.4 8.6 60 1023.0 9.8 W 12.1 0.0 0.0
13:36 16.5 8.7 60 1022.9 9.8 NW 12.1 0.0 0.0
13:37 16.6 8.8 60 1023.1 10.7 N 12.1 0.0 0.0
13:38 16.8 9.2 61 1022.9 8.3 SW 12.1 0.0 0.0
13:39 17.0 9.2 60 1023.0 9.8 NW 12.1 0.0 0.0
13:40 17.0 9.2 60 1023.2 12.1 SW 12.1 0.0 0.0
13:41 17.1 9.3 60 1023.2 8.3 SSW 12.1 0.0 0.0
13:42 17.2 9.4 60 1023.1 6.9 NW 12.1 0.0 0.0
13:43 17.2 8.6 57 1022.9 13.0 N 13.0 0.0 0.0
13:44 17.2 8.4 56 1023.2 9.2 NNW 13.0 0.0 0.0
13:45 17.2 8.1 55 1022.8 11.4 SW 13.0 0.0 0.0
13:46 17.1 7.7 54 1023.0 10.7 N 13.0 0.0 0.0
13:47 17.1 8.3 56 1023.1 9.8 NW 13.0 0.0 0.0
13:48 17.1 8.3 56 1023.1 9.8 NW 13.0 0.0 0.0
13:49 17.2 8.6 57 1023.1 4.5 W 13.0 0.0 0.0
13:50 17.3 9.0 58 1022.9 5.4 N 13.0 0.0 0.0
13:51 17.2 8.6 57 1023.3 13.6 W 13.6 0.0 0.0
13:53 17.1 8.3 56 1023.2 6.9 NW 13.6 0.0 0.0
13:54 17.1 8.8 58 1023.0 9.2 NNW 13.6 0.0 0.0
13:55 17.1 9.0 59 1023.2 6.9 N 13.6 0.0 0.0
13:56 17.0 8.7 58 1023.3 6.0 NNW 13.6 0.0 0.0
13:57 17.0 8.9 59 1023.2 9.2 N 13.6 0.0 0.0
13:58 17.0 8.9 59 1023.1 9.8 W 13.6 0.0 0.0
13:59 17.0 8.7 58 1023.1 6.9 NNW 13.6 0.0 0.0
14:00 17.0 8.7 58 1023.2 9.8 NE 13.6 0.0 0.0
14:01 17.0 8.7 58 1023.2 9.8 NE 13.6 0.0 0.0
14:02 17.0 8.7 58 1023.1 9.8 NE 9.8 0.0 0.0
14:03 17.0 8.7 58 1023.3 9.8 NE 9.8 0.0 0.0
14:04 17.0 8.7 58 1023.1 9.8 NE 9.8 0.0 0.0
14:05 17.0 8.7 58 1023.4 9.8 NE 9.8 0.0 0.0
14:06 17.5 9.4 59 1023.2 13.6 NW 13.6 0.0 0.0
14:07 17.5 8.9 57 1023.2 9.8 NNW 13.6 0.0 0.0
14:08 17.4 9.6 60 1023.2 9.8 W 13.6 0.0 0.0
14:09 17.4 9.6 60 1023.3 4.5 NNW 13.6 0.0 0.0
14:10 17.5 9.4 59 1023.1 9.2 W 13.6 0.0 0.0
14:12 17.6 8.7 56 1023.2 9.2 NW 13.6 0.0 0.0
14:13 17.6 8.5 55 1023.2 9.2 W 14.5 0.0 0.0
14:14 17.7 8.8 56 1023.3 4.5 WNW 14.5 0.0 0.0
14:15 17.8 8.9 56 1023.3 5.4 N 14.5 0.0 0.0
14:16 17.8 8.9 56 1023.1 9.2 NNE 14.5 0.0 0.0
14:17 17.9 9.0 56 1023.2 10.7 NE 14.5 0.0 0.0
14:18 17.9 8.7 55 1023.4 6.0 NW 14.5 0.0 0.0
14:19 17.9 8.5 54 1023.1 13.6 NNW 14.5 0.0 0.0
14:20 17.9 8.5 54 1023.3 13.6 N 14.5 0.0 0.0
14:21 17.9 8.7 55 1023.3 10.7 SSW 14.5 0.0 0.0
14:22 17.8 8.6 55 1023.2 12.1 NNW 14.5 0.0 0.0
14:23 17.7 8.3 54 1023.3 9.8 N 14.5 0.0 0.0
14:24 17.6 8.2 54 1023.4 9.8 N 13.6 0.0 0.0
14:25 17.6 8.2 54 1023.3 9.2 NW 13.6 0.0 0.0
14:26 17.6 8.5 55 1023.4 11.4 N 13.6 0.0 0.0
14:27 17.6 8.5 55 1023.3 9.2 NE 15.2 0.0 0.0
14:28 17.6 8.7 56 1023.3 9.2 NW 15.2 0.0 0.0
14:29 17.7 8.8 56 1023.4 6.9 NW 15.2 0.0 0.0
14:31 17.7 8.6 55 1023.4 9.8 WNW 15.2 0.0 0.0
14:32 17.7 8.8 56 1023.5 9.8 NW 15.2 0.0 0.0
14:33 17.7 8.6 55 1023.3 9.2 W 15.2 0.0 0.0
14:34 17.7 8.6 55 1023.3 6.0 W 15.2 0.0 0.0
14:35 17.8 8.9 56 1023.3 6.0 N 15.2 0.0 0.0
14:36 17.8 9.2 57 1023.2 5.4 N 15.2 0.0 0.0
14:37 17.9 9.0 56 1023.4 13.6 W 14.5 0.0 0.0
14:38 17.9 9.0 56 1023.4 13.6 W 14.5 0.0 0.0
14:39 17.9 8.5 54 1023.2 9.2 WNW 14.5 0.0 0.0
14:40 17.8 8.4 54 1023.3 9.2 N 14.5 0.0 0.0
14:41 17.9 8.7 55 1023.4 12.1 WNW 14.5 0.0 0.0
14:42 17.9 9.0 56 1023.6 8.3 NW 14.5 0.0 0.0
14:43 18.0 9.1 56 1023.5 9.2 N 14.5 0.0 0.0
14:44 18.0 8.8 55 1023.5 13.0 NNW 13.6 0.0 0.0
14:45 18.0 8.8 55 1023.4 7.6 NW 13.6 0.0 0.0
14:46 18.0 8.6 54 1023.3 7.6 WNW 13.6 0.0 0.0
14:47 18.2 9.0 55 1023.4 11.4 N 13.6 0.0 0.0
14:48 18.2 8.7 54 1023.6 15.2 SW 15.2 0.0 0.0
14:50 18.0 8.3 53 1023.3 10.7 W 15.2 0.0 0.0
14:51 17.9 7.9 52 1023.5 11.4 W 15.2 0.0 0.0
14:52 17.8 7.8 52 1023.4 8.3 E 15.2 0.0 0.0
14:53 17.8 8.4 54 1023.6 9.8 W 15.2 0.0 0.0
14:54 17.7 8.3 54 1023.6 8.3 W 15.2 0.0 0.0
14:55 17.7 8.6 55 1023.4 9.8 N 15.2 0.0 0.0
14:56 17.7 8.6 55 1023.3 7.6 W 15.2 0.0 0.0
14:57 17.7 8.8 56 1023.6 15.9 W 15.9 0.0 0.0
14:58 17.7 8.3 54 1023.2 11.4 NW 15.9 0.0 0.0
14:59 17.6 7.9 53 1023.5 9.2 NW 15.9 0.0 0.0
15:00 17.7 8.6 55 1023.5 5.4 N 15.9 0.0 0.0
15:01 17.7 8.6 55 1023.7 5.4 N 15.9 0.0 0.0
15:02 17.7 8.6 55 1023.5 5.4 N 15.9 0.0 0.0
15:03 17.7 8.6 55 1023.4 5.4 N 15.9 0.0 0.0
15:04 17.7 8.6 55 1023.3 5.4 N 15.9 0.0 0.0
15:05 17.7 8.6 55 1023.5 5.4 N 15.9 0.0 0.0
15:06 17.8 8.6 55 1023.4 15.2 W 15.9 0.0 0.0
15:07 17.8 8.4 54 1023.3 5.4 WNW 15.2 0.0 0.0
15:09 17.7 8.3 54 1023.4 9.2 W 15.2 0.0 0.0
15:10 17.7 8.6 55 1023.6 8.3 N 15.2 0.0 0.0
15:11 17.7 8.6 55 1023.5 9.8 W 15.2 0.0 0.0
15:12 17.6 8.5 55 1023.4 6.9 NW 15.2 0.0 0.0
15:13 17.6 7.9 53 1023.4 12.1 NW 15.2 0.0 0.0
15:14 17.5 7.5 52 1023.4 12.1 W 15.2 0.0 0.0
15:15 17.4 8.3 55 1023.5 9.8 N 15.2 0.0 0.0
15:17 17.4 9.1 58 1023.5 10.7 NNW 12.1 0.0 0.0
15:18 17.5 8.1 54 1023.5 6.9 W 12.1 0.0 0.0
15:20 17.5 8.4 55 1023.4 6.9 WNW 12.1 0.0 0.0
15:21 17.8 8.6 55 1023.4 10.7 SW 12.1 0.0 0.0
15:22 17.8 8.6 55 1023.5 10.7 SW 12.1 0.0 0.0
15:23 17.7 8.0 53 1023.4 7.6 NW 12.1 0.0 0.0
15:24 17.6 7.9 53 1023.4 10.7 NE 12.1 0.0 0.0
15:25 17.4 9.1 58 1023.4 8.3 NW 10.7 0.0 0.0
15:26 17.4 8.8 57 1023.2 9.2 SW 10.7 0.0 0.0
15:27 17.3 8.4 56 1023.3 9.2 N 10.7 0.0 0.0
15:28 17.2 8.4 56 1023.5 11.4 N 11.4 0.0 0.0
15:29 17.1 8.5 57 1023.4 11.4 WNW 11.4 0.0 0.0
15:30 17.0 8.4 57 1023.6 10.7 N 11.4 0.0 0.0
15:31 16.7 8.1 57 1023.3 9.8 NW 11.4 0.0 0.0
15:32 16.6 7.8 56 1023.6 7.6 NW 11.4 0.0 0.0
15:33 16.5 7.7 56 1023.6 11.4 N 11.4 0.0 0.0
15:34 16.4 7.6 56 1023.8 8.3 N 11.4 0.0 0.0
15:35 16.2 8.2 59 1023.6 3.8 N 11.4 0.0 0.0
15:36 16.3 8.5 60 1023.3 9.8 NW 11.4 0.0 0.0
15:37 16.6 8.8 60 1023.4 6.9 NW 11.4 0.0 0.0
15:39 16.8 9.2 61 1023.6 9.8 NW 11.4 0.0 0.0
15:40 17.0 9.4 61 1023.6 9.2 WSW 11.4 0.0 0.0
15:41 17.2 9.4 60 1023.4 9.2 N 11.4 0.0 0.0
15:42 17.2 9.1 59 1023.4 9.2 W 11.4 0.0 0.0
15:43 17.3 9.2 59 1023.4 7.6 N 9.8 0.0 0.0
15:44 17.4 9.1 58 1023.6 7.6 NW 9.8 0.0 0.0
15:45 17.2 8.4 56 1023.4 12.1 W 13.0 0.0 0.0
15:46 17.2 8.4 56 1023.4 12.1 W 13.0 0.0 0.0
15:47 17.2 8.9 58 1023.5 7.6 WNW 13.0 0.0 0.0
15:48 17.1 8.8 58 1023.6 8.3 E 13.0 0.0 0.0
15:49 17.1 9.0 59 1023.6 9.2 N 13.0 0.0 0.0
15:50 17.0 8.9 59 1023.3 13.0 NW 13.0 0.0 0.0
15:51 16.9 8.8 59 1023.6 8.3 W 13.0 0.0 0.0
15:52 16.9 8.8 59 1023.5 8.3 NNW 13.0 0.0 0.0
15:53 16.9 8.8 59 1023.7 9.8 NE 13.0 0.0 0.0
15:54 16.9 8.8 59 1023.5 9.2 NW 13.0 0.0 0.0
15:55 17.0 8.9 59 1023.6 9.8 W 13.0 0.0 0.0
15:56 17.0 8.7 58 1023.7 9.2 W 13.0 0.0 0.0
15:57 17.1 9.0 59 1023.5 8.3 W 13.0 0.0 0.0
15:59 17.2 9.4 60 1023.6 7.6 NW 13.0 0.0 0.0
16:00 17.3 9.5 60 1023.6 7.6 WNW 9.8 0.0 0.0
16:01 17.3 9.5 60 1023.6 7.6 WNW 9.8 0.0 0.0
16:02 17.3 9.5 60 1023.7 7.6 WNW 9.8 0.0 0.0
16:03 17.3 9.5 60 1023.5 7.6 WNW 9.8 0.0 0.0
16:04 17.3 9.5 60 1023.6 7.6 WNW 9.8 0.0 0.0
16:05 17.3 9.5 60 1023.6 7.6 WNW 9.8 0.0 0.0
16:06 17.3 9.5 60 1023.3 7.6 WNW 9.2 0.0 0.0
16:07 17.3 9.5 60 1023.5 7.6 WNW 8.3 0.0 0.0
16:08 17.3 9.5 60 1023.6 7.6 WNW 8.3 0.0 0.0
16:09 17.3 9.5 60 1023.7 7.6 WNW 7.6 0.0 0.0
16:10 17.7 8.0 53 1023.4 7.6 W 7.6 0.0 0.0
16:11 17.6 7.6 52 1023.6 7.6 NNE 7.6 0.0 0.0
16:12 17.4 8.8 57 1023.6 7.6 NW 7.6 0.0 0.0
16:13 17.3 8.4 56 1023.5 7.6 W 7.6 0.0 0.0
16:14 17.3 8.4 56 1023.5 8.3 NW 8.3 0.0 0.0
16:15 17.1 8.3 56 1023.5 6.9 NW 9.8 0.0 0.0
16:16 17.1 8.5 57 1023.7 6.0 N 9.8 0.0 0.0
16:18 17.1 9.0 59 1023.5 4.5 NW 9.8 0.0 0.0
16:19 17.1 9.0 59 1023.5 11.4 N 11.4 0.0 0.0
16:20 17.0 8.9 59 1023.7 9.2 N 11.4 0.0 0.0
16:21 17.0 8.9 59 1023.5 5.4 NW 11.4 0.0 0.0
16:22 17.0 8.9 59 1023.6 5.4 N 11.4 0.0 0.0
16:23 17.0 8.9 59 1023.2 6.9 NW 11.4 0.0 0.0
16:24 17.0 8.7 58 1023.6 6.9 NW 11.4 0.0 0.0
16:25 17.0 8.7 58 1023.6 6.9 NW 11.4 0.0 0.0
16:26 17.0 8.7 58 1023.4 6.9 NW 11.4 0.0 0.0
16:27 17.0 8.4 57 1023.7 9.8 NW 11.4 0.0 0.0
16:28 17.0 8.4 57 1023.5 9.2 SW 11.4 0.0 0.0
16:29 17.0 8.2 56 1023.5 9.2 WNW 11.4 0.0 0.0
16:30 16.9 8.1 56 1023.5 9.8 NW 9.8 0.0 0.0
16:31 16.9 8.1 56 1023.6 9.2 WNW 10.7 0.0 0.0
16:32 17.0 8.4 57 1023.5 9.8 N 10.7 0.0 0.0
16:33 17.0 8.7 58 1023.5 9.8 W 10.7 0.0 0.0
16:34 17.1 9.0 59 1023.5 7.6 N 10.7 0.0 0.0
16:36 17.2 9.1 59 1023.5 7.6 SSW 10.7 0.0 0.0
16:37 17.4 9.3 59 1023.5 11.4 NW 11.4 0.0 0.0
16:38 17.4 9.3 59 1023.5 11.4 NW 11.4 0.0 0.0
16:39 17.3 9.0 58 1023.7 6.9 N 11.4 0.0 0.0
16:40 17.2 8.6 57 1023.6 9.8 NW 11.4 0.0 0.0
16:41 17.1 9.0 59 1023.4 6.0 WSW 11.4 0.0 0.0
16:42 17.1 9.0 59 1023.4 6.0 WSW 11.4 0.0 0.0
16:43 17.1 8.8 58 1023.5 7.6 W 11.4 0.0 0.0
16:44 17.1 8.8 58 1023.6 7.6 NW 11.4 0.0 0.0
16:45 17.1 9.0 59 1023.3 7.6 NE 11.4 0.0 0.0
16:46 17.1 9.0 59 1023.6 7.6 SW 11.4 0.0 0.0
16:47 17.3 9.2 59 1023.7 9.8 NW 11.4 0.0 0.0
16:48 17.4 9.3 59 1023.7 8.3 N 11.4 0.0 0.0
16:49 17.5 8.4 55 1023.7 8.3 E 9.8 0.0 0.0
16:50 17.6 8.5 55 1023.5 6.0 N 9.8 0.0 0.0
16:51 17.7 8.6 55 1023.6 13.0 SW 13.0 0.0 0.0
16:52 17.8 8.4 54 1023.5 13.6 W 13.6 0.0 0.0
16:54 17.7 8.0 53 1023.8 6.9 W 13.6 0.0 0.0
16:55 17.7 8.0 53 1023.8 7.6 NW 13.6 0.0 0.0
16:56 17.7 8.0 53 1023.7 13.0 NW 13.6 0.0 0.0
16:57 17.7 7.7 52 1023.6 10.7 SW 13.6 0.0 0.0
16:58 17.6 7.6 52 1023.5 10.7 NE 13.6 0.0 0.0
16:59 17.6 7.6 52 1023.6 6.9 W 13.6 0.0 0.0
17:00 17.6 7.6 52 1023.8 9.8 NNW 13.6 0.0 0.0
17:01 17.6 7.6 52 1023.6 9.8 NNW 13.6 0.0 0.0
17:02 17.6 7.6 52 1023.5 9.8 NNW 13.6 0.0 0.0
17:03 17.6 7.6 52 1023.5 9.8 NNW 13.0 0.0 0.0
17:04 17.6 7.6 52 1023.5 9.8 NNW 13.0 0.0 0.0
17:05 17.6 7.6 52 1023.7 9.8 NNW 13.0 0.0 0.0
17:06 17.6 7.6 52 1023.7 9.8 NNW 13.0 0.0 0.0
17:07 17.6 7.4 51 1023.2 10.7 W 11.4 0.0 0.0
17:08 17.5 7.5 52 1023.7 6.9 NW 11.4 0.0 0.0
17:09 17.4 8.3 55 1023.7 10.7 NW 11.4 0.0 0.0
17:10 17.4 8.3 55 1023.5 10.7 NNE 11.4 0.0 0.0
17:11 17.4 8.0 54 1023.7 8.3 NW 11.4 0.0 0.0
17:12 17.4 8.0 54 1023.5 8.3 NW 11.4 0.0 0.0
17:14 17.5 7.5 52 1023.5 11.4 N 11.4 0.0 0.0
17:15 17.5 7.3 51 1023.4 13.6 NW 13.6 0.0 0.0
17:17 17.4 7.7 53 1023.5 13.0 NNW 13.6 0.0 0.0
17:18 17.2 7.5 53 1023.6 9.2 NW 13.6 0.0 0.0
17:19 17.0 7.6 54 1023.3 8.3 NW 13.6 0.0 0.0
17:20 16.9 7.8 55 1023.5 7.6 E 13.6 0.0 0.0
17:21 16.9 8.1 56 1023.6 9.2 NW 13.6 0.0 0.0
17:22 16.9 7.8 55 1023.5 13.0 WSW 13.6 0.0 0.0
17:23 16.9 7.5 54 1023.4 9.8 W 13.6 0.0 0.0
17:24 16.9 7.5 54 1023.5 10.7 WSW 13.6 0.0 0.0
17:26 17.1 8.5 57 1023.5 7.6 NW 13.0 0.0 0.0
17:27 17.1 8.5 57 1023.4 10.7 WSW 13.0 0.0 0.0
17:28 17.1 8.8 58 1023.6 8.3 NW 13.0 0.0 0.0
17:29 17.1 8.0 55 1023.6 8.3 N 13.0 0.0 0.0
17:30 17.1 8.0 55 1023.4 8.3 NW 13.0 0.0 0.0
17:31 17.1 8.3 56 1023.5 7.6 SE 13.0 0.0 0.0
17:32 17.1 8.5 57 1023.4 6.0 N 13.0 0.0 0.0
17:33 17.1 8.5 57 1023.4 10.7 W 13.0 0.0 0.0
17:34 17.1 8.5 57 1023.5 10.7 WNW 13.0 0.0 0.0
17:35 17.1 8.3 56 1023.6 6.9 W 13.0 0.0 0.0
17:36 17.0 8.2 56 1023.3 7.6 NW 13.0 0.0 0.0
17:37 17.0 8.2 56 1023.3 7.6 NW 13.0 0.0 0.0
17:38 17.0 7.9 55 1023.5 8.3 W 13.0 0.0 0.0
17:39 17.0 8.2 56 1023.4 5.4 W 13.0 0.0 0.0
17:40 17.0 8.2 56 1023.5 7.6 NW 10.7 0.0 0.0
17:41 17.0 8.2 56 1023.5 6.9 N 10.7 0.0 0.0
17:42 16.9 8.6 58 1023.6 4.5 NE 10.7 0.0 0.0
17:43 16.9 8.8 59 1023.5 6.0 NE 10.7 0.0 0.0
17:45 17.0 8.4 57 1023.6 12.1 NW 12.1 0.0 0.0
17:46 17.0 8.2 56 1023.6 7.6 NW 12.1 0.0 0.0
17:47 17.0 7.9 55 1023.4 10.7 N 12.1 0.0 0.0
17:48 17.0 7.6 54 1023.5 8.3 N 12.1 0.0 0.0
17:49 16.9 7.5 54 1023.6 6.9 NW 12.1 0.0 0.0
17:50 16.8 7.2 53 1023.6 9.8 WSW 12.1 0.0 0.0
17:51 16.8 7.2 53 1023.4 9.8 N 12.1 0.0 0.0
17:52 16.8 7.4 54 1023.5 7.6 WSW 12.1 0.0 0.0
17:53 16.8 7.4 54 1023.4 9.2 NW 12.1 0.0 0.0
17:54 16.8 7.4 54 1023.5 9.2 NW 12.1 0.0 0.0
17:55 16.8 8.0 56 1023.7 8.3 NE 12.1 0.0 0.0
17:56 16.8 8.2 57 1023.4 6.0 NW 12.1 0.0 0.0
17:57 16.9 8.3 57 1023.6 9.2 NW 10.7 0.0 0.0
17:58 16.9 8.3 57 1023.5 9.2 NW 9.8 0.0 0.0
17:59 16.7 8.1 57 1023.4 8.3 N 9.8 0.0 0.0
18:00 16.7 8.1 57 1023.4 8.3 N 9.8 0.0 0.0
18:01 16.9 8.8 59 1023.5 10.7 N 11.4 0.0 0.0
18:02 16.9 8.8 59 1023.5 12.1 W 12.1 0.0 0.0
18:04 16.8 8.0 56 1023.4 9.8 NW 12.1 0.0 0.0
18:05 16.8 8.2 57 1023.5 10.7 N 12.1 0.0 0.0
18:06 16.8 8.2 57 1023.7 12.1 NNE 12.1 0.0 0.0
18:07 16.7 8.1 57 1023.5 8.3 NW 12.1 0.0 0.0
18:08 16.7 8.1 57 1023.7 8.3 NW 12.1 0.0 0.0
18:09 16.5 8.5 59 1023.6 6.9 SW 12.1 0.0 0.0
18:10 16.5 8.5 59 1023.6 6.9 SW 12.1 0.0 0.0
18:11 16.4 8.1 58 1023.6 8.3 W 12.1 0.0 0.0
18:12 16.3 8.0 58 1023.6 7.6 SW 12.1 0.0 0.0
18:13 16.2 7.7 57 1023.5 9.8 NW 12.1 0.0 0.0
18:14 16.1 7.6 57 1023.6 8.3 N 12.1 0.0 0.0
18:15 15.9 7.4 57 1023.5 9.2 SW 12.1 0.0 0.0
18:16 15.8 7.3 57 1023.5 6.0 NW 12.1 0.0 0.0
18:17 15.7 7.5 58 1023.4 6.9 W 9.8 0.0 0.0
18:18 15.7 7.7 59 1023.5 5.4 N 9.8 0.0 0.0
18:19 15.8 7.8 59 1023.5 7.6 N 9.8 0.0 0.0
18:20 15.8 7.8 59 1023.5 7.6 N 9.8 0.0 0.0
18:21 16.0 8.0 59 1023.6 9.8 WSW 13.6 0.0 0.0
18:23 16.0 8.0 59 1023.5 5.4 N 13.6 0.0 0.0
18:24 15.9 8.2 60 1023.7 7.6 SW 13.6 0.0 0.0
18:25 15.9 7.9 59 1023.7 6.0 WNW 13.6 0.0 0.0
18:26 15.7 7.7 59 1023.5 8.3 W 13.6 0.0 0.0
18:27 15.7 7.7 59 1023.5 8.3 N 13.6 0.0 0.0
18:28 15.7 8.0 60 1023.5 4.5 W 13.6 0.0 0.0
18:29 15.7 8.0 60 1023.6 7.6 N 13.6 0.0 0.0
18:30 15.8 8.1 60 1023.7 4.5 W 13.6 0.0 0.0
18:31 15.9 8.4 61 1023.6 11.4 NW 13.6 0.0 0.0
18:32 16.0 8.5 61 1023.6 11.4 N 11.4 0.0 0.0
18:33 16.0 8.5 61 1023.5 3.8 NNW 11.4 0.0 0.0
18:34 16.1 8.6 61 1023.3 8.3 NW 11.4 0.0 0.0
18:35 16.2 8.7 61 1023.6 11.4 N 11.4 0.0 0.0
18:36 16.3 8.5 60 1023.6 9.2 NNE 11.4 0.0 0.0
18:37 16.3 8.5 60 1023.4 9.2 NW 11.4 0.0 0.0
18:38 16.3 8.5 60 1023.8 9.2 NW 11.4 0.0 0.0
18:39 16.3 8.3 59 1023.5 13.0 N 13.0 0.0 0.0
18:40 16.2 8.2 59 1023.4 10.7 NNW 13.0 0.0 0.0
18:42 16.2 8.2 59 1023.3 4.5 WNW 13.0 0.0 0.0
18:43 16.2 8.2 59 1023.5 9.8 NW 13.0 0.0 0.0
18:44 16.2 8.2 59 1023.6 9.8 N 13.0 0.0 0.0
18:45 16.1 7.8 58 1023.5 8.3 NE 13.0 0.0 0.0
18:46 16.1 7.6 57 1023.6 7.6 S 13.0 0.0 0.0
18:47 16.0 7.7 58 1023.5 8.3 NE 13.0 0.0 0.0
18:48 16.0 8.0 59 1023.7 7.6 WNW 13.0 0.0 0.0
18:49 15.9 7.9 59 1023.6 3.8 N 13.0 0.0 0.0
18:50 15.9 7.9 59 1023.5 6.0 NNW 10.7 0.0 0.0
18:51 15.9 7.9 59 1023.4 9.8 SW 10.7 0.0 0.0
18:52 15.9 7.9 59 1023.6 3.1 NW 9.8 0.0 0.0
18:53 16.0 8.0 59 1023.6 9.8 N 9.8 0.0 0.0
18:54 16.0 8.2 60 1023.5 6.9 NW 9.8 0.0 0.0
18:55 16.0 8.2 60 1023.4 8.3 W 9.8 0.0 0.0
18:56 16.0 8.2 60 1023.6 6.9 N 9.8 0.0 0.0
18:57 16.0 8.2 60 1023.5 6.0 WNW 9.8 0.0 0.0
18:58 16.0 8.2 60 1023.5 5.4 NW 9.8 0.0 0.0
18:59 15.9 8.2 60 1023.5 10.7 NW 10.7 0.0 0.0
19:01 15.9 8.2 60 1023.5 3.8 SW 10.7 0.0 0.0
19:02 15.9 8.2 60 1023.7 3.8 SW 10.7 0.0 0.0
19:03 15.9 8.2 60 1023.4 3.8 SW 10.7 0.0 0.0
19:04 15.9 8.2 60 1023.4 3.8 SW 10.7 0.0 0.0
19:05 15.9 8.2 60 1023.4 3.8 SW 10.7 0.0 0.0
19:06 15.8 7.8 59 1023.5 8.3 NW 10.7 0.0 0.0
19:07 15.8 7.8 59 1023.4 7.6 NW 10.7 0.0 0.0
19:08 15.8 8.1 60 1023.4 3.8 NW 10.7 0.0 0.0
19:09 15.7 8.0 60 1023.4 3.1 NNW 10.7 0.0 0.0
19:10 15.6 7.9 60 1023.4 12.1 W 12.1 0.0 0.0
19:11 15.4 7.7 60 1023.4 6.0 N 12.1 0.0 0.0
19:12 15.4 7.9 61 1023.5 4.5 NW 12.1 0.0 0.0
19:13 15.4 7.9 61 1023.5 6.0 W 12.1 0.0 0.0
19:14 15.4 7.9 61 1023.4 11.4 NW 12.1 0.0 0.0
19:15 15.3 7.8 61 1023.5 6.9 W 12.1 0.0 0.0
19:16 15.2 7.7 61 1023.5 6.9 W 12.1 0.0 0.0
19:17 15.2 8.0 62 1023.4 4.5 NW 12.1 0.0 0.0
19:18 15.3 8.1 62 1023.5 3.8 W 12.1 0.0 0.0
19:19 15.4 8.2 62 1023.3 6.0 W 12.1 0.0 0.0
19:20 15.4 8.2 62 1023.5 6.9 W 12.1 0.0 0.0
19:21 15.5 8.3 62 1023.5 6.0 W 11.4 0.0 0.0
19:22 15.5 8.3 62 1023.5 6.9 SW 11.4 0.0 0.0
19:23 15.5 8.0 61 1023.4 6.9 NW 11.4 0.0 0.0
19:24 15.5 8.0 61 1023.4 4.5 NW 11.4 0.0 0.0
19:25 15.4 7.9 61 1023.5 8.3 NW 8.3 0.0 0.0
19:26 15.3 7.8 61 1023.4 8.3 S 8.3 0.0 0.0
19:27 15.2 7.5 60 1023.4 12.1 NW 12.1 0.0 0.0
19:28 15.2 7.5 60 1023.6 9.8 N 12.1 0.0 0.0
19:29 15.1 7.4 60 1023.5 10.7 NNE 12.1 0.0 0.0
19:31 15.0 7.5 61 1023.5 9.2 NE 12.1 0.0 0.0
19:32 15.0 7.5 61 1023.7 9.2 N 12.1 0.0 0.0
19:33 15.0 7.3 60 1023.5 6.0 NW 12.1 0.0 0.0
19:34 15.0 7.3 60 1023.6 6.0 NW 12.1 0.0 0.0
19:35 15.0 7.3 60 1023.5 8.3 NW 12.1 0.0 0.0
19:36 14.9 7.2 60 1023.6 8.3 NW 12.1 0.0 0.0
19:37 14.9 7.2 60 1023.4 9.2 N 12.1 0.0 0.0
19:38 14.8 7.1 60 1023.5 9.2 N 10.7 0.0 0.0
19:39 14.6 7.2 61 1023.6 10.7 W 10.7 0.0 0.0
19:40 14.6 7.2 61 1023.4 9.2 NW 10.7 0.0 0.0
19:41 14.5 7.1 61 1023.6 9.2 W 10.7 0.0 0.0
19:42 14.5 7.1 61 1023.7 9.2 W 10.7 0.0 0.0
19:43 14.4 7.2 62 1023.5 3.8 N 10.7 0.0 0.0
19:44 14.4 7.2 62 1023.7 3.1 W 10.7 0.0 0.0
19:45 14.3 7.1 62 1023.8 5.4 N 10.7 0.0 0.0
19:46 14.3 7.1 62 1023.7 6.9 NE 10.7 0.0 0.0
19:47 14.2 6.8 61 1023.6 7.6 W 10.7 0.0 0.0
19:48 14.1 6.7 61 1023.6 7.6 NW 10.7 0.0 0.0
19:50 14.1 6.9 62 1023.7 6.9 N 9.2 0.0 0.0
19:51 14.0 6.8 62 1023.7 6.9 WNW 9.2 0.0 0.0
19:52 14.0 6.8 62 1023.6 3.8 NW 7.6 0.0 0.0
19:53 14.0 6.8 62 1023.8 4.5 N 7.6 0.0 0.0
19:54 14.0 6.8 62 1023.6 6.9 WNW 7.6 0.0 0.0
19:55 13.9 6.7 62 1023.9 8.3 W 8.3 0.0 0.0
19:56 13.9 6.7 62 1023.9 9.2 NW 9.2 0.0 0.0
19:57 13.9 6.7 62 1023.7 8.3 W 9.2 0.0 0.0
19:58 13.8 6.6 62 1023.7 2.2 S 9.2 0.0 0.0
19:59 13.9 6.7 62 1023.9 4.5 N 9.2 0.0 0.0
20:00 13.9 7.0 63 1023.8 6.0 NW 9.2 0.0 0.0
20:01 13.9 7.0 63 1023.9 6.0 N 9.2 0.0 0.0
20:02 13.9 7.0 63 1023.8 6.0 NW 9.2 0.0 0.0
20:03 14.0 7.1 63 1023.8 8.3 N 9.2 0.0 0.0
20:04 14.0 6.8 62 1023.8 6.9 N 9.2 0.0 0.0
20:05 14.0 6.8 62 1024.1 6.9 N 9.2 0.0 0.0
20:06 14.0 6.8 62 1023.7 9.2 NW 9.8 0.0 0.0
20:07 14.0 7.1 63 1023.7 6.0 W 9.8 0.0 0.0
20:09 14.0 6.8 62 1023.8 4.5 NW 9.8 0.0 0.0
20:10 14.0 6.8 62 1024.1 4.5 S 9.8 0.0 0.0
20:11 13.9 6.7 62 1024.0 3.8 NW 9.8 0.0 0.0
20:12 13.9 6.7 62 1023.9 5.4 W 9.8 0.0 0.0
20:13 13.8 6.9 63 1024.0 3.8 N 9.8 0.0 0.0
20:14 13.8 6.9 63 1024.0 6.9 N 9.8 0.0 0.0
20:15 13.8 6.9 63 1024.0 9.2 SW 9.8 0.0 0.0
20:16 13.8 6.9 63 1024.0 6.0 NE 9.8 0.0 0.0
20:17 13.8 6.9 63 1023.9 10.7 SW 10.7 0.0 0.0
20:18 13.8 6.9 63 1023.9 10.7 N 10.7 0.0 0.0
20:19 13.8 6.9 63 1023.9 6.0 NE 10.7 0.0 0.0
20:20 13.7 6.8 63 1024.1 7.6 W 10.7 0.0 0.0
20:21 13.7 6.8 63 1023.9 6.0 NNW 10.7 0.0 0.0
20:22 13.7 6.8 63 1023.9 7.6 NW 10.7 0.0 0.0
20:23 13.6 6.7 63 1024.1 8.3 WNW 10.7 0.0 0.0
20:24 13.6 6.7 63 1024.3 5.4 NW 10.7 0.0 0.0
20:25 13.6 6.7 63 1024.0 6.9 NW 10.7 0.0 0.0
20:26 13.6 6.7 63 1023.9 6.9 NW 10.7 0.0 0.0
20:28 13.5 6.6 63 1024.0 6.9 NE 8.3 0.0 0.0
20:29 13.5 6.6 63 1024.1 6.0 NE 8.3 0.0 0.0
20:30 13.4 6.5 63 1023.9 4.5 NNE 8.3 0.0 0.0
20:31 13.4 6.5 63 1024.1 4.5 NW 8.3 0.0 0.0
20:32 13.4 6.5 63 1024.1 3.8 N 8.3 0.0 0.0
20:33 13.4 6.5 63 1024.1 3.1 NE 8.3 0.0 0.0
20:34 13.4 6.5 63 1024.1 3.1 NE 6.9 0.0 0.0
20:35 13.4 6.7 64 1023.9 3.1 NW 6.9 0.0 0.0
20:36 13.4 6.7 64 1024.0 4.5 W 6.9 0.0 0.0
20:37 13.4 6.7 64 1024.0 3.1 WNW 6.9 0.0 0.0
20:38 13.3 6.6 64 1024.0 6.9 N 6.9 0.0 0.0
20:39 13.3 6.6 64 1023.8 6.9 N 6.9 0.0 0.0
20:40 13.2 6.5 64 1024.0 6.9 N 6.9 0.0 0.0
20:41 13.2 6.5 64 1024.2 2.2 W 6.9 0.0 0.0
20:42 13.2 6.5 64 1024.1 3.8 NW 6.9 0.0 0.0
20:43 13.2 6.5 64 1024.1 8.3 N 8.3 0.0 0.0
20:44 13.1 6.4 64 1024.2 5.4 NW 8.3 0.0 0.0
20:45 13.1 6.4 64 1024.2 3.1 NE 8.3 0.0 0.0
20:47 13.1 6.4 64 1024.0 2.2 N 8.3 0.0 0.0
20:48 13.0 6.4 64 1024.1 3.1 NE 8.3 0.0 0.0
20:49 13.0 6.4 64 1024.2 4.5 W 8.3 0.0 0.0
20:50 13.0 6.4 64 1024.1 3.1 NE 8.3 0.0 0.0
20:51 12.9 6.3 64 1024.1 3.1 N 8.3 0.0 0.0
20:52 12.9 6.3 64 1024.1 5.4 NW 8.3 0.0 0.0
20:53 12.9 6.3 64 1024.2 6.9 NW 8.3 0.0 0.0
20:54 12.8 6.2 64 1024.4 5.4 N 6.9 0.0 0.0
20:55 12.7 6.1 64 1023.9 3.1 NW 6.9 0.0 0.0
20:56 12.7 6.1 64 1024.2 3.8 N 6.9 0.0 0.0
20:57 12.7 6.3 65 1024.1 2.2 NW 6.9 0.0 0.0
20:58 12.6 6.2 65 1024.2 2.2 WNW 6.9 0.0 0.0
20:59 12.6 6.2 65 1024.1 6.0 N 6.9 0.0 0.0
21:00 12.5 6.1 65 1024.2 6.0 NW 6.9 0.0 0.0
21:01 12.5 6.1 65 1024.1 6.0 NW 6.9 0.0 0.0
21:02 12.5 6.1 65 1024.4 6.0 NW 6.9 0.0 0.0
21:03 12.5 6.1 65 1024.3 6.0 NW 6.9 0.0 0.0
21:04 12.5 6.1 65 1024.3 6.0 NW 6.0 0.0 0.0
21:05 12.5 6.1 65 1024.1 6.0 NW 6.0 0.0 0.0
21:07 12.5 6.1 65 1024.3 6.0 NW 6.0 0.0 0.0
21:08 12.2 6.7 69 1024.2 2.2 NW 6.0 0.0 0.0
21:09 12.1 6.6 69 1024.4 2.2 NW 6.0 0.0 0.0
21:10 12.1 6.6 69 1024.4 2.2 NW 6.0 0.0 0.0
21:11 12.1 6.6 69 1024.4 2.2 NW 6.0 0.0 0.0
21:12 12.0 6.7 70 1024.3 2.2 NW 6.0 0.0 0.0
21:13 12.0 6.7 70 1024.4 2.2 NW 6.0 0.0 0.0
21:14 12.0 6.7 70 1024.4 2.2 W 6.0 0.0 0.0
21:15 12.0 6.7 70 1024.4 1.6 NW 6.0 0.0 0.0
21:16 11.9 6.6 70 1024.5 1.6 NW 6.0 0.0 0.0
21:17 11.9 6.6 70 1024.3 0.7 N 6.0 0.0 0.0
21:18 11.9 6.6 70 1024.4 1.6 N 2.2 0.0 0.0
21:19 11.8 6.5 70 1024.7 2.2 NW 2.2 0.0 0.0
21:20 11.8 6.5 70 1024.3 1.6 NW 2.2 0.0 0.0
21:21 11.8 6.5 70 1024.6 0.7 NW 2.2 0.0 0.0
21:22 11.7 6.4 70 1024.5 2.2 N 2.2 0.0 0.0
21:23 11.7 6.4 70 1024.3 2.2 NW 2.2 0.0 0.0
21:24 11.7 6.4 70 1024.6 0.7 NW 2.2 0.0 0.0
21:25 11.6 6.3 70 1024.5 2.2 W 2.2 0.0 0.0
21:26 11.6 6.3 70 1024.5 0.7 NW 2.2 0.0 0.0
21:27 11.5 6.2 70 1024.7 0.7 NW 2.2 0.0 0.0
21:28 11.5 6.2 70 1024.7 0.7 NW 2.2 0.0 0.0
21:29 11.5 6.4 71 1024.6 3.1 NW 3.1 0.0 0.0
21:30 11.5 6.4 71 1024.6 3.8 NW 3.8 0.0 0.0
21:31 11.4 6.3 71 1024.5 2.2 NW 3.8 0.0 0.0
21:32 11.4 6.3 71 1024.5 0.0 NW 3.8 0.0 0.0
21:33 11.3 6.2 71 1024.5 0.0 NW 3.8 0.0 0.0
21:34 11.3 6.2 71 1024.5 0.7 NW 3.8 0.0 0.0
21:35 11.2 6.1 71 1024.5 0.0 NW 3.8 0.0 0.0
21:36 11.2 6.1 71 1024.6 0.0 NW 3.8 0.0 0.0
21:37 11.2 6.1 71 1024.3 0.0 NW 3.8 0.0 0.0
21:45 11.0 6.1 72 1024.8 0.0 NW 0.0 0.0 0.0
21:46 11.0 6.1 72 1024.6 0.0 NW 0.0 0.0 0.0
21:47 11.0 6.1 72 1024.5 0.0 NW 0.0 0.0 0.0
21:48 11.0 6.1 72 1024.5 0.0 NW 0.0 0.0 0.0
21:49 11.0 6.1 72 1024.7 0.0 NW 0.0 0.0 0.0
21:50 10.9 6.1 72 1024.8 0.0 NW 0.0 0.0 0.0
21:51 10.9 6.1 72 1024.8 0.0 NW 0.0 0.0 0.0
21:52 10.9 6.1 72 1024.6 0.0 NW 0.0 0.0 0.0
21:53 10.8 6.0 72 1024.6 0.0 NW 0.0 0.0 0.0
21:54 10.8 6.0 72 1024.7 0.0 NW 0.0 0.0 0.0
21:55 10.8 6.0 72 1024.7 0.0 NW 0.0 0.0 0.0
21:56 10.8 6.0 72 1024.8 0.0 NW 0.0 0.0 0.0
21:57 10.8 6.0 72 1024.6 0.0 NW 0.0 0.0 0.0
21:59 10.7 5.9 72 1024.7 0.0 NW 0.0 0.0 0.0
22:00 10.7 6.1 73 1024.6 0.0 NW 0.0 0.0 0.0
22:01 10.7 6.1 73 1024.8 0.0 NW 0.0 0.0 0.0
22:02 10.7 6.1 73 1024.9 0.0 NW 0.0 0.0 0.0
22:03 10.6 6.0 73 1024.9 0.0 NW 0.0 0.0 0.0
22:04 10.6 6.0 73 1024.6 0.0 NW 0.0 0.0 0.0
22:05 10.6 6.0 73 1024.8 0.0 NW 0.0 0.0 0.0
22:06 10.6 6.0 73 1024.9 0.0 NW 0.0 0.0 0.0
22:07 10.6 6.0 73 1024.8 0.0 NW 0.0 0.0 0.0
22:08 10.5 5.9 73 1024.6 0.0 NW 0.0 0.0 0.0
22:09 10.5 5.9 73 1024.7 0.0 NW 0.0 0.0 0.0
22:10 10.5 5.9 73 1024.7 0.0 NW 0.0 0.0 0.0
22:11 10.4 5.8 73 1024.9 0.0 NW 0.0 0.0 0.0
22:12 10.4 5.8 73 1024.9 0.0 NW 0.0 0.0 0.0
22:13 10.4 5.8 73 1024.8 0.0 NW 0.0 0.0 0.0
22:14 10.3 5.7 73 1025.0 0.0 NW 0.0 0.0 0.0
22:15 10.3 5.7 73 1025.1 0.0 NW 0.0 0.0 0.0
22:16 10.3 5.9 74 1024.9 0.0 NW 0.0 0.0 0.0
22:17 10.2 5.8 74 1024.9 0.0 NW 0.0 0.0 0.0
22:19 10.2 5.8 74 1024.9 0.0 NW 0.0 0.0 0.0
22:20 10.1 5.7 74 1025.0 0.0 NW 0.0 0.0 0.0
22:21 10.1 5.7 74 1025.0 0.0 NW 0.0 0.0 0.0
22:22 10.1 5.7 74 1024.9 0.0 NW 0.0 0.0 0.0
22:23 10.1 5.7 74 1024.9 0.0 NW 0.0 0.0 0.0
22:24 10.1 5.7 74 1024.9 0.0 NW 0.0 0.0 0.0
22:25 10.0 5.8 75 1025.1 0.0 NW 0.0 0.0 0.0
22:26 10.0 5.8 75 1025.1 0.0 NW 0.0 0.0 0.0
22:27 10.0 5.8 75 1025.2 0.0 N 0.0 0.0 0.0
22:28 10.0 5.8 75 1025.0 0.0 NW 0.0 0.0 0.0
22:29 10.0 5.8 75 1025.0 0.0 NW 0.0 0.0 0.0
22:30 10.0 5.8 75 1025.1 0.0 NW 0.0 0.0 0.0
22:31 10.0 6.0 76 1025.0 0.0 NW 0.0 0.0 0.0
22:32 10.0 6.0 76 1025.0 0.0 NW 0.0 0.0 0.0
22:33 10.0 6.0 76 1024.9 0.0 NW 0.0 0.0 0.0
22:34 9.9 5.9 76 1025.1 0.0 NW 0.0 0.0 0.0
22:35 9.9 5.9 76 1025.0 0.0 NW 0.0 0.0 0.0
22:36 9.9 5.9 76 1024.9 0.0 NW 0.0 0.0 0.0
22:38 9.9 5.9 76 1024.7 0.0 NW 0.0 0.0 0.0
22:39 9.9 5.9 76 1025.0 0.0 NW 0.0 0.0 0.0
22:40 9.9 5.9 76 1025.0 0.0 NW 0.0 0.0 0.0
22:41 9.9 6.1 77 1025.0 0.0 N 0.0 0.0 0.0
22:42 9.9 6.1 77 1025.0 0.0 N 0.0 0.0 0.0
22:43 9.9 6.1 77 1024.9 0.0 NE 0.0 0.0 0.0
22:44 9.9 6.1 77 1025.0 0.0 N 0.0 0.0 0.0
22:45 9.9 6.1 77 1025.1 0.0 N 0.0 0.0 0.0
22:46 9.9 6.1 77 1025.1 0.0 N 0.0 0.0 0.0
22:47 9.9 6.2 78 1025.0 0.0 N 0.0 0.0 0.0
22:48 9.9 6.2 78 1025.0 0.0 N 0.0 0.0 0.0
22:49 9.9 6.2 78 1025.0 0.0 NW 0.0 0.0 0.0
22:50 9.9 6.2 78 1024.9 0.0 NW 0.0 0.0 0.0
22:51 9.9 6.2 78 1025.0 0.0 N 0.0 0.0 0.0
22:52 9.9 6.2 78 1025.0 0.0 N 0.0 0.0 0.0
22:53 9.9 6.2 78 1025.0 0.0 N 0.7 0.0 0.0
22:54 9.9 6.2 78 1024.8 0.0 N 0.7 0.0 0.0
22:55 9.9 6.2 78 1024.9 0.0 NW 0.7 0.0 0.0
22:57 9.9 6.2 78 1025.1 0.0 NW 0.7 0.0 0.0
22:58 9.9 6.2 78 1025.0 0.0 NW 0.7 0.0 0.0
22:59 9.8 6.1 78 1024.9 0.0 NW 0.7 0.0 0.0
23:00 9.8 6.1 78 1024.8 0.0 NW 0.7 0.0 0.0
23:01 9.8 6.1 78 1024.9 0.0 NW 0.7 0.0 0.0
23:02 9.8 6.1 78 1024.9 0.0 NW 0.7 0.0 0.0
23:03 9.8 6.1 78 1024.8 0.0 NW 0.7 0.0 0.0
23:04 9.8 6.1 78 1024.9 0.0 NW 0.0 0.0 0.0
23:05 9.8 6.1 78 1024.8 0.0 NW 0.0 0.0 0.0
23:06 9.8 6.1 78 1024.9 0.0 NW 0.0 0.0 0.0
23:07 9.5 5.7 77 1024.7 0.0 NW 0.0 0.0 0.0
23:08 9.5 5.7 77 1024.6 0.0 NW 0.0 0.0 0.0
23:09 9.4 5.6 77 1024.6 0.0 NW 0.0 0.0 0.0
23:10 9.4 5.6 77 1024.8 0.0 NW 0.0 0.0 0.0
23:12 9.3 5.5 77 1024.7 0.0 NW 0.0 0.0 0.0
23:13 9.3 5.5 77 1024.6 0.0 NW 0.0 0.0 0.0
23:14 9.2 5.4 77 1024.9 0.0 N 0.0 0.0 0.0
23:15 9.2 5.4 77 1024.6 0.0 N 0.0 0.0 0.0
23:16 9.2 5.4 77 1024.6 0.0 NW 0.0 0.0 0.0
23:17 9.1 5.3 77 1024.8 0.0 NW 0.0 0.0 0.0
23:18 9.1 5.3 77 1024.8 0.0 NW 0.0 0.0 0.0
23:19 9.1 5.5 78 1024.9 0.0 NW 0.0 0.0 0.0
23:20 9.1 5.5 78 1024.7 0.0 NW 0.0 0.0 0.0
23:22 9.0 5.4 78 1024.8 0.0 NW 0.0 0.0 0.0
23:23 9.0 5.4 78 1024.6 0.0 NW 0.0 0.0 0.0
23:24 9.0 5.4 78 1024.8 0.0 NW 0.0 0.0 0.0
23:25 9.0 5.4 78 1024.8 0.0 NW 0.0 0.0 0.0
23:26 9.0 5.4 78 1024.8 0.0 NW 0.0 0.0 0.0
23:27 9.0 5.6 79 1024.9 0.0 NW 0.0 0.0 0.0
23:28 8.9 5.5 79 1024.8 0.0 NW 0.0 0.0 0.0
23:29 8.9 5.5 79 1024.8 0.0 NW 0.0 0.0 0.0
23:30 8.9 5.5 79 1024.7 0.0 NW 0.0 0.0 0.0
23:31 8.9 5.5 79 1024.9 0.0 NW 0.0 0.0 0.0
23:32 8.9 5.5 79 1024.7 0.0 NW 0.0 0.0 0.0
23:33 8.9 5.5 79 1024.4 0.0 NW 0.0 0.0 0.0
23:34 8.9 5.5 79 1024.8 0.0 NW 0.0 0.0 0.0
23:35 8.8 5.4 79 1024.8 0.0 NW 0.0 0.0 0.0
23:36 8.8 5.4 79 1024.7 0.0 NW 0.0 0.0 0.0
23:37 8.8 5.4 79 1024.9 0.0 NW 0.0 0.0 0.0
23:38 8.8 5.4 79 1024.7 0.0 NW 0.0 0.0 0.0
23:39 8.8 5.4 79 1024.7 0.0 NW 0.0 0.0 0.0
23:40 8.8 5.4 79 1024.7 0.0 NW 0.0 0.0 0.0
23:42 8.7 5.3 79 1024.7 0.0 NW 0.0 0.0 0.0
23:43 8.7 5.3 79 1024.8 2.2 NW 2.2 0.0 0.0
23:44 8.7 5.3 79 1024.7 2.2 NW 2.2 0.0 0.0
23:45 8.7 5.3 79 1024.6 1.6 W 2.2 0.0 0.0
23:46 8.7 5.3 79 1024.8 3.1 W 3.1 0.0 0.0
23:47 8.7 5.3 79 1024.7 0.0 W 3.1 0.0 0.0
23:48 8.7 5.3 79 1024.7 0.0 W 3.1 0.0 0.0
23:49 8.7 5.3 79 1024.7 1.6 NW 3.1 0.0 0.0
23:50 8.7 5.3 79 1024.7 0.7 NW 3.1 0.0 0.0
23:51 8.7 5.3 79 1024.8 0.0 NW 3.1 0.0 0.0
23:52 8.6 5.2 79 1024.7 0.0 NW 3.1 0.0 0.0
23:53 8.6 5.2 79 1024.7 0.0 NW 3.1 0.0 0.0
23:54 8.6 5.2 79 1024.5 0.0 NW 3.1 0.0 0.0
23:55 8.5 5.1 79 1024.6 0.0 NW 3.1 0.0 0.0
23:56 8.5 5.1 79 1024.6 0.0 NW 1.6 0.0 0.0
23:57 8.4 5.0 79 1024.5 0.0 NW 1.6 0.0 0.0
23:59 8.4 5.0 79 1024.5 0.0 NW 0.7 0.0 0.0

 

 

UK - WEATHER STATION TOPSITES - UK

Copyright © Carnkie Weather 2009 - 2024.